SIA32 WSSS-KSFO

Flight info

Callsign SIA32
Flight time N/A
Altitude 35000
Route TOMAN5B TOMAN L625 AKMON/K0932F350 L625 ANOKI/N0500F360 L625 MEVIN/N0496F370 B462 KAZIK Y59 AZAMA Y57 POROT OTR11 LEPKI/N0480F390 DCT 41N160E 44N170E 45N180E 47N170W/N0495F410 50N160W 52N150W 50N140W 45N130W DCT NATTE DCT AMAKR BDEGA4
Aircraft A359/H-SDE1E2E3GHIJ1J2J3J5M1P2RWXYZ/LB1D1

Departure

Time 2026-05-07 04:53
Airport Singapore Changi Airport (WSSS)

Arrival

Time N/A
Airport San Francisco International Airport (KSFO)
Time Latitude Longitude Altitude Speed Heading
2026-05-07 04:13 1.35021 103.98206 39 ft 0 kts 153°
2026-05-07 04:36 1.35036 103.98199 39 ft 4 kts 155°
2026-05-07 04:36 1.35061 103.98189 36 ft 4 kts 164°
2026-05-07 04:36 1.35086 103.98184 36 ft 4 kts 182°
2026-05-07 04:36 1.35107 103.98187 36 ft 4 kts 216°
2026-05-07 04:37 1.35119 103.98200 36 ft 4 kts 242°
2026-05-07 04:37 1.35130 103.98222 36 ft 1 kts 243°
2026-05-07 04:37 1.35142 103.98242 34 ft 4 kts 223°
2026-05-07 04:37 1.35162 103.98256 38 ft 4 kts 199°
2026-05-07 04:38 1.35188 103.98263 36 ft 4 kts 201°
2026-05-07 04:38 1.35193 103.98265 35 ft 0 kts 203°
2026-05-07 04:40 1.35173 103.98256 37 ft 6 kts 206°
2026-05-07 04:40 1.35138 103.98223 39 ft 8 kts 232°
2026-05-07 04:40 1.35107 103.98173 39 ft 9 kts 241°
2026-05-07 04:40 1.35068 103.98123 39 ft 9 kts 219°
2026-05-07 04:41 1.35011 103.98092 39 ft 9 kts 205°
2026-05-07 04:41 1.34951 103.98066 39 ft 10 kts 203°
2026-05-07 04:41 1.34889 103.98039 39 ft 10 kts 202°
2026-05-07 04:41 1.34823 103.98016 39 ft 9 kts 182°
2026-05-07 04:42 1.34782 103.98054 39 ft 8 kts 121°
2026-05-07 04:42 1.34758 103.98107 39 ft 10 kts 113°
2026-05-07 04:42 1.34724 103.98188 39 ft 14 kts 113°
2026-05-07 04:42 1.34692 103.98263 48 ft 9 kts 113°
2026-05-07 04:43 1.34675 103.98304 52 ft 4 kts 113°
2026-05-07 04:43 1.34668 103.98320 53 ft 5 kts 113°
2026-05-07 04:43 1.34643 103.98378 52 ft 12 kts 112°
2026-05-07 04:43 1.34607 103.98465 51 ft 15 kts 112°
2026-05-07 04:44 1.34552 103.98594 39 ft 24 kts 114°
2026-05-07 04:44 1.34488 103.98740 39 ft 21 kts 113°
2026-05-07 04:44 1.34437 103.98862 39 ft 13 kts 111°
2026-05-07 04:44 1.34428 103.98941 39 ft 11 kts 61°
2026-05-07 04:45 1.34488 103.98980 39 ft 10 kts 24°
2026-05-07 04:45 1.34555 103.99010 40 ft 11 kts 24°
2026-05-07 04:45 1.34623 103.99041 39 ft 11 kts 24°
2026-05-07 04:45 1.34694 103.99070 39 ft 11 kts 20°
2026-05-07 04:46 1.34768 103.99098 39 ft 12 kts 21°
2026-05-07 04:46 1.34844 103.99128 39 ft 12 kts 22°
2026-05-07 04:46 1.34921 103.99160 39 ft 12 kts 22°
2026-05-07 04:46 1.34999 103.99192 38 ft 12 kts 22°
2026-05-07 04:47 1.35079 103.99226 38 ft 13 kts 24°
2026-05-07 04:47 1.35160 103.99261 38 ft 13 kts 24°
2026-05-07 04:47 1.35240 103.99295 39 ft 12 kts 23°
2026-05-07 04:47 1.35319 103.99329 39 ft 12 kts 23°
2026-05-07 04:48 1.35400 103.99363 39 ft 13 kts 22°
2026-05-07 04:48 1.35481 103.99396 39 ft 13 kts 22°
2026-05-07 04:48 1.35561 103.99430 39 ft 13 kts 22°
2026-05-07 04:48 1.35642 103.99463 39 ft 13 kts 22°
2026-05-07 04:49 1.35725 103.99498 39 ft 13 kts 23°
2026-05-07 04:49 1.35810 103.99534 38 ft 13 kts 22°
2026-05-07 04:49 1.35896 103.99570 38 ft 14 kts 22°
2026-05-07 04:49 1.35983 103.99606 38 ft 14 kts 22°
2026-05-07 04:50 1.36071 103.99643 36 ft 14 kts 22°
2026-05-07 04:50 1.36161 103.99680 38 ft 14 kts 22°
2026-05-07 04:50 1.36230 103.99712 38 ft 8 kts 36°
2026-05-07 04:50 1.36241 103.99759 38 ft 7 kts 103°
2026-05-07 04:51 1.36221 103.99811 37 ft 9 kts 111°
2026-05-07 04:51 1.36194 103.99867 36 ft 9 kts 126°
2026-05-07 04:51 1.36144 103.99877 36 ft 7 kts 198°
2026-05-07 04:51 1.36095 103.99856 36 ft 11 kts 202°
2026-05-07 04:52 1.35838 103.99748 39 ft 70 kts 203°
2026-05-07 04:52 1.35210 103.99484 40 ft 124 kts 202°
2026-05-07 04:52 1.34265 103.99086 41 ft 170 kts 203°
2026-05-07 04:52 1.33070 103.98578 278 ft 193 kts 201°
2026-05-07 04:53 1.31868 103.98067 1047 ft 184 kts 202°
2026-05-07 04:53 1.30696 103.97578 1670 ft 181 kts 202°
2026-05-07 04:53 1.29495 103.97072 1872 ft 195 kts 202°
2026-05-07 04:53 1.28215 103.96528 2039 ft 211 kts 202°
2026-05-07 04:54 1.26802 103.95931 2204 ft 229 kts 202°
2026-05-07 04:54 1.25276 103.95301 2424 ft 245 kts 201°
2026-05-07 04:54 1.23567 103.94945 2681 ft 257 kts 177°
2026-05-07 04:54 1.21859 103.95452 3118 ft 261 kts 147°
2026-05-07 04:55 1.20429 103.96574 3648 ft 263 kts 139°
2026-05-07 04:55 1.19056 103.97802 4152 ft 266 kts 138°
2026-05-07 04:55 1.17666 103.99043 4679 ft 269 kts 139°
2026-05-07 04:55 1.16276 104.00272 5175 ft 271 kts 139°
2026-05-07 04:56 1.14912 104.01577 5694 ft 274 kts 130°
2026-05-07 04:56 1.13923 104.03206 6217 ft 276 kts 115°
2026-05-07 04:56 1.13149 104.04962 6713 ft 278 kts 113°
2026-05-07 04:56 1.12588 104.06816 7215 ft 280 kts 99°
2026-05-07 04:57 1.12564 104.08762 7747 ft 282 kts 84°
2026-05-07 04:57 1.12761 104.10719 8346 ft 284 kts 85°
2026-05-07 04:57 1.12956 104.12688 9003 ft 286 kts 84°
2026-05-07 04:57 1.13180 104.14665 9662 ft 287 kts 83°
2026-05-07 04:58 1.13430 104.16646 10154 ft 290 kts 83°
2026-05-07 04:58 1.13698 104.18659 10396 ft 302 kts 83°
2026-05-07 04:58 1.13990 104.20783 10619 ft 315 kts 82°
2026-05-07 04:58 1.14299 104.22995 10826 ft 327 kts 82°
2026-05-07 04:59 1.14620 104.25283 11037 ft 338 kts 82°
2026-05-07 04:59 1.14953 104.27642 11240 ft 349 kts 82°
2026-05-07 04:59 1.15298 104.30081 11439 ft 359 kts 82°
2026-05-07 04:59 1.15651 104.32583 11630 ft 368 kts 82°
2026-05-07 05:00 1.16013 104.35144 11819 ft 377 kts 82°
2026-05-07 05:00 1.16385 104.37771 12028 ft 384 kts 82°
2026-05-07 05:00 1.16762 104.40426 12324 ft 388 kts 82°
2026-05-07 05:00 1.17136 104.43070 12663 ft 391 kts 82°
2026-05-07 05:01 1.17517 104.45766 13043 ft 393 kts 82°
2026-05-07 05:01 1.17901 104.48477 13412 ft 396 kts 82°
2026-05-07 05:01 1.18288 104.51210 13740 ft 398 kts 82°
2026-05-07 05:01 1.18676 104.53951 14034 ft 399 kts 82°
2026-05-07 05:02 1.19065 104.56706 14330 ft 401 kts 82°
2026-05-07 05:02 1.19456 104.59469 14619 ft 403 kts 82°
2026-05-07 05:02 1.19849 104.62249 14913 ft 405 kts 82°
2026-05-07 05:02 1.20239 104.65007 15198 ft 407 kts 82°
2026-05-07 05:03 1.20636 104.67811 15462 ft 409 kts 82°
2026-05-07 05:03 1.21034 104.70626 15756 ft 410 kts 82°
2026-05-07 05:03 1.21434 104.73455 16036 ft 412 kts 82°
2026-05-07 05:03 1.21835 104.76294 16312 ft 414 kts 82°
2026-05-07 05:04 1.22238 104.79142 16590 ft 415 kts 82°
2026-05-07 05:04 1.22642 104.82003 16860 ft 417 kts 82°
2026-05-07 05:04 1.23048 104.84874 17157 ft 418 kts 82°
2026-05-07 05:04 1.23455 104.87759 17453 ft 420 kts 82°
2026-05-07 05:05 1.23859 104.90618 17723 ft 422 kts 82°
2026-05-07 05:05 1.24271 104.93528 18019 ft 423 kts 82°
2026-05-07 05:05 1.24684 104.96440 18293 ft 424 kts 82°
2026-05-07 05:05 1.25097 104.99365 18531 ft 426 kts 82°
2026-05-07 05:06 1.25511 105.02299 18761 ft 427 kts 82°
2026-05-07 05:06 1.25927 105.05245 18993 ft 429 kts 82°
2026-05-07 05:06 1.26344 105.08200 19201 ft 430 kts 82°
2026-05-07 05:06 1.26757 105.11125 19428 ft 432 kts 82°
2026-05-07 05:07 1.27177 105.14099 19654 ft 433 kts 82°
2026-05-07 05:07 1.27599 105.17082 19871 ft 434 kts 82°
2026-05-07 05:07 1.28021 105.20074 20093 ft 436 kts 82°
2026-05-07 05:07 1.28446 105.23081 20307 ft 437 kts 82°
2026-05-07 05:08 1.28871 105.26092 20530 ft 439 kts 82°
2026-05-07 05:08 1.29297 105.29113 20765 ft 440 kts 82°
2026-05-07 05:08 1.29725 105.32140 20984 ft 441 kts 82°
2026-05-07 05:08 1.30009 105.34155 21136 ft 442 kts 82°
2026-05-07 05:09 1.30440 105.37205 21360 ft 444 kts 82°
2026-05-07 05:09 1.31017 105.41293 21659 ft 446 kts 82°
2026-05-07 05:09 1.31445 105.44328 21874 ft 447 kts 82°
2026-05-07 05:09 1.31879 105.47408 22106 ft 449 kts 82°
2026-05-07 05:10 1.32315 105.50497 22332 ft 450 kts 82°
2026-05-07 05:10 1.32754 105.53604 22559 ft 452 kts 82°
2026-05-07 05:10 1.33193 105.56717 22781 ft 453 kts 82°
2026-05-07 05:10 1.33633 105.59839 23023 ft 455 kts 82°
2026-05-07 05:11 1.34075 105.62974 23239 ft 456 kts 82°
2026-05-07 05:11 1.34513 105.66075 23459 ft 458 kts 82°
2026-05-07 05:11 1.34813 105.68205 23585 ft 459 kts 82°
2026-05-07 05:11 1.35586 105.72358 23834 ft 461 kts 74°
2026-05-07 05:12 1.36723 105.75352 24020 ft 463 kts 64°
2026-05-07 05:12 1.38417 105.78091 24196 ft 465 kts 53°
2026-05-07 05:12 1.40626 105.80461 24387 ft 468 kts 42°
2026-05-07 05:12 1.42315 105.81809 24526 ft 470 kts 37°
2026-05-07 05:13 1.45070 105.83578 24736 ft 472 kts 31°
2026-05-07 05:13 1.47965 105.85145 24941 ft 474 kts 28°
2026-05-07 05:13 1.50924 105.86619 25154 ft 476 kts 27°
2026-05-07 05:13 1.54879 105.88545 25449 ft 478 kts 27°
2026-05-07 05:14 1.57866 105.90019 25671 ft 480 kts 28°
2026-05-07 05:14 1.59878 105.91028 25828 ft 481 kts 28°
2026-05-07 05:14 1.62829 105.92527 26049 ft 482 kts 28°
2026-05-07 05:14 1.65819 105.94064 26297 ft 484 kts 28°
2026-05-07 05:15 1.68814 105.95613 26543 ft 486 kts 28°
2026-05-07 05:15 1.71819 105.97172 26783 ft 488 kts 28°
2026-05-07 05:15 1.74838 105.98739 27029 ft 490 kts 28°
2026-05-07 05:15 1.77866 106.00310 27281 ft 492 kts 28°
2026-05-07 05:16 1.80907 106.01887 27538 ft 493 kts 28°
2026-05-07 05:16 1.84952 106.03982 27869 ft 496 kts 28°
2026-05-07 05:16 1.86990 106.05038 28023 ft 497 kts 28°
2026-05-07 05:16 1.90066 106.06631 28269 ft 499 kts 28°
2026-05-07 05:17 1.93155 106.08233 28487 ft 501 kts 29°
2026-05-07 05:17 1.96256 106.09842 28712 ft 503 kts 28°
2026-05-07 05:17 1.99367 106.11449 28929 ft 505 kts 28°
2026-05-07 05:17 2.02498 106.13066 29123 ft 507 kts 28°
2026-05-07 05:18 2.05632 106.14685 29350 ft 508 kts 28°
2026-05-07 05:18 2.08779 106.16311 29602 ft 509 kts 28°
2026-05-07 05:18 2.11917 106.17933 29914 ft 508 kts 28°
2026-05-07 05:18 2.15051 106.19553 30178 ft 507 kts 28°
2026-05-07 05:19 2.18189 106.21176 30418 ft 507 kts 28°
2026-05-07 05:19 2.21273 106.22771 30654 ft 506 kts 28°
2026-05-07 05:19 2.24404 106.24392 30895 ft 506 kts 28°
2026-05-07 05:19 2.27528 106.26008 31140 ft 505 kts 28°
2026-05-07 05:20 2.30650 106.27624 31385 ft 505 kts 28°
2026-05-07 05:20 2.33766 106.29237 31620 ft 504 kts 28°
2026-05-07 05:20 2.36878 106.30847 31848 ft 504 kts 28°
2026-05-07 05:20 2.39989 106.32457 32068 ft 503 kts 28°
2026-05-07 05:21 2.43100 106.34067 32289 ft 503 kts 28°
2026-05-07 05:21 2.49272 106.37262 32713 ft 503 kts 28°
2026-05-07 05:21 2.52376 106.38869 32927 ft 502 kts 28°
2026-05-07 05:22 2.55480 106.40476 33146 ft 501 kts 28°
2026-05-07 05:22 2.58572 106.42082 33362 ft 501 kts 28°
2026-05-07 05:22 2.61666 106.43686 33548 ft 501 kts 28°
2026-05-07 05:22 2.64761 106.45289 33738 ft 500 kts 28°
2026-05-07 05:23 2.67810 106.46866 33939 ft 500 kts 28°
2026-05-07 05:23 2.70892 106.48461 34107 ft 499 kts 28°
2026-05-07 05:23 2.73973 106.50056 34285 ft 498 kts 28°
2026-05-07 05:23 2.77051 106.51653 34472 ft 497 kts 28°
2026-05-07 05:24 2.80119 106.53243 34657 ft 496 kts 28°
2026-05-07 05:24 2.83186 106.54831 34798 ft 496 kts 28°
2026-05-07 05:24 2.86256 106.56422 34838 ft 499 kts 28°
2026-05-07 05:25 2.92411 106.59609 34834 ft 502 kts 28°
2026-05-07 05:25 2.98617 106.62816 34834 ft 502 kts 28°
2026-05-07 05:26 3.04817 106.66021 34836 ft 502 kts 28°
2026-05-07 05:26 3.11018 106.69231 34839 ft 502 kts 28°
2026-05-07 05:27 3.17214 106.72439 34832 ft 502 kts 28°
2026-05-07 05:27 3.23372 106.75629 34832 ft 502 kts 28°
2026-05-07 05:28 3.29571 106.78839 34831 ft 502 kts 28°
2026-05-07 05:28 3.35774 106.82052 34833 ft 502 kts 28°
2026-05-07 05:29 3.41978 106.85266 34832 ft 502 kts 28°
2026-05-07 05:29 3.48141 106.88460 34831 ft 502 kts 28°
2026-05-07 05:30 3.54343 106.91680 34829 ft 502 kts 29°
2026-05-07 05:30 3.60200 106.95454 34826 ft 501 kts 36°
2026-05-07 05:31 3.65908 106.99457 34834 ft 501 kts 37°
2026-05-07 05:31 3.71598 107.03498 34820 ft 501 kts 37°
2026-05-07 05:32 3.77248 107.07504 34837 ft 501 kts 37°
2026-05-07 05:32 3.82951 107.11536 34820 ft 502 kts 37°
2026-05-07 05:33 3.88652 107.15563 34836 ft 502 kts 37°
2026-05-07 05:33 3.94361 107.19596 34821 ft 502 kts 37°
2026-05-07 05:34 4.00024 107.23598 34837 ft 502 kts 37°
2026-05-07 05:34 4.05731 107.27631 34825 ft 502 kts 37°
2026-05-07 05:35 4.11441 107.31668 34823 ft 502 kts 37°
2026-05-07 05:35 4.17151 107.35705 34838 ft 502 kts 37°
2026-05-07 05:36 4.22859 107.39742 34825 ft 502 kts 37°
2026-05-07 05:36 4.28523 107.43748 34836 ft 502 kts 37°
2026-05-07 05:37 4.34234 107.47789 34828 ft 502 kts 37°
2026-05-07 05:37 4.39937 107.51824 34831 ft 502 kts 37°
2026-05-07 05:38 4.45645 107.55864 34820 ft 502 kts 37°
2026-05-07 05:38 4.51349 107.59901 34822 ft 502 kts 37°
2026-05-07 05:39 4.57015 107.63913 34838 ft 502 kts 37°
2026-05-07 05:39 4.62717 107.67951 34822 ft 502 kts 37°
2026-05-07 05:40 4.68419 107.71990 34834 ft 502 kts 37°
2026-05-07 05:40 4.74118 107.76027 34819 ft 502 kts 37°
2026-05-07 05:41 4.79779 107.80038 34835 ft 502 kts 37°
2026-05-07 05:41 4.85478 107.84077 34825 ft 502 kts 37°
2026-05-07 05:42 4.91177 107.88117 34824 ft 502 kts 37°
2026-05-07 05:42 4.96880 107.92162 34821 ft 502 kts 37°
2026-05-07 05:43 5.02589 107.96203 34822 ft 502 kts 37°
2026-05-07 05:43 5.08278 108.00192 34834 ft 503 kts 37°
2026-05-07 05:44 5.14017 108.04213 34818 ft 503 kts 37°
2026-05-07 05:44 5.19756 108.08242 34832 ft 503 kts 37°
2026-05-07 05:45 5.25458 108.12250 34820 ft 504 kts 37°
2026-05-07 05:45 5.31195 108.16284 34816 ft 504 kts 37°
2026-05-07 05:46 5.36928 108.20316 34816 ft 503 kts 36°
2026-05-07 05:46 5.42665 108.24351 34817 ft 503 kts 36°
2026-05-07 05:47 5.48391 108.28380 34819 ft 502 kts 36°
2026-05-07 05:47 5.54069 108.32375 34821 ft 502 kts 36°
2026-05-07 05:48 5.59787 108.36400 34821 ft 501 kts 36°
2026-05-07 05:48 5.65494 108.40418 34822 ft 501 kts 36°
2026-05-07 05:49 5.71204 108.44439 34822 ft 501 kts 36°
2026-05-07 05:49 5.76910 108.48458 34819 ft 501 kts 36°
2026-05-07 05:50 5.82580 108.52453 34820 ft 501 kts 36°
2026-05-07 05:50 5.88286 108.56473 34818 ft 501 kts 36°
2026-05-07 05:51 5.93984 108.60490 34816 ft 501 kts 36°
2026-05-07 05:51 5.99688 108.64512 34819 ft 500 kts 36°
2026-05-07 05:52 6.05344 108.68501 34820 ft 500 kts 36°
2026-05-07 05:52 6.11038 108.72517 34817 ft 500 kts 36°
2026-05-07 05:53 6.16730 108.76534 34822 ft 500 kts 36°
2026-05-07 05:53 6.22421 108.80550 34815 ft 500 kts 36°
2026-05-07 05:54 6.28072 108.84541 34819 ft 500 kts 36°
2026-05-07 05:54 6.33758 108.88556 34818 ft 500 kts 36°
2026-05-07 05:55 6.39446 108.92574 34815 ft 500 kts 36°
2026-05-07 05:55 6.45129 108.96589 34814 ft 500 kts 36°
2026-05-07 05:56 6.50818 109.00610 34818 ft 500 kts 36°
2026-05-07 05:56 6.56463 109.04602 34819 ft 500 kts 36°
2026-05-07 05:57 6.62154 109.08626 34816 ft 500 kts 36°
2026-05-07 05:57 6.67845 109.12652 34813 ft 500 kts 36°
2026-05-07 05:58 6.73542 109.16683 34813 ft 501 kts 36°
2026-05-07 05:58 6.79196 109.20685 34818 ft 501 kts 36°
2026-05-07 05:59 6.84896 109.24721 34822 ft 501 kts 36°
2026-05-07 05:59 6.90593 109.28755 34815 ft 500 kts 36°
2026-05-07 06:00 6.96280 109.32784 34821 ft 500 kts 36°
2026-05-07 06:00 7.01971 109.36817 34818 ft 500 kts 36°
2026-05-07 06:01 7.07616 109.40819 34812 ft 499 kts 36°
2026-05-07 06:01 7.13290 109.44843 34827 ft 499 kts 36°
2026-05-07 06:02 7.18959 109.48864 34827 ft 498 kts 36°
2026-05-07 06:02 7.24629 109.52886 34815 ft 498 kts 36°
2026-05-07 06:03 7.30254 109.56879 34815 ft 498 kts 36°
2026-05-07 06:03 7.35924 109.60905 34814 ft 498 kts 36°
2026-05-07 06:04 7.41587 109.64927 34826 ft 498 kts 36°
2026-05-07 06:04 7.47253 109.68952 34812 ft 498 kts 36°
2026-05-07 06:05 7.52917 109.72977 34825 ft 498 kts 36°
2026-05-07 06:05 7.58539 109.76974 34814 ft 498 kts 36°
2026-05-07 06:06 7.64201 109.81000 34817 ft 498 kts 36°
2026-05-07 06:06 7.69866 109.85030 34826 ft 498 kts 36°
2026-05-07 06:07 7.75530 109.89060 34813 ft 498 kts 36°
2026-05-07 06:07 7.81197 109.93095 34814 ft 499 kts 36°
2026-05-07 06:08 7.86826 109.97103 34818 ft 499 kts 36°
2026-05-07 06:08 7.92495 110.01142 34827 ft 499 kts 36°
2026-05-07 06:09 7.98169 110.05185 34816 ft 499 kts 36°
2026-05-07 06:09 8.03838 110.09226 34819 ft 499 kts 36°
2026-05-07 06:10 8.09468 110.13241 34818 ft 499 kts 36°
2026-05-07 06:10 8.15135 110.17283 34816 ft 499 kts 36°
2026-05-07 06:11 8.20799 110.21324 34818 ft 499 kts 36°
2026-05-07 06:11 8.26456 110.25380 34814 ft 498 kts 36°
2026-05-07 06:12 8.32094 110.29445 34825 ft 498 kts 36°
2026-05-07 06:12 8.37698 110.33489 34815 ft 498 kts 36°
2026-05-07 06:13 8.43338 110.37556 34821 ft 498 kts 36°
2026-05-07 06:13 8.48978 110.41622 34818 ft 498 kts 36°
2026-05-07 06:14 8.54623 110.45692 34821 ft 498 kts 36°
2026-05-07 06:14 8.60266 110.49765 34828 ft 498 kts 36°
2026-05-07 06:15 8.65863 110.53804 34817 ft 498 kts 36°
2026-05-07 06:15 8.71495 110.57871 34831 ft 497 kts 36°
2026-05-07 06:16 8.77131 110.61941 34821 ft 498 kts 36°
2026-05-07 06:16 8.82768 110.66014 34818 ft 498 kts 36°
2026-05-07 06:17 8.88363 110.70060 34834 ft 497 kts 36°
2026-05-07 06:17 8.93989 110.74128 34815 ft 498 kts 36°
2026-05-07 06:18 8.99622 110.78203 34817 ft 498 kts 36°
2026-05-07 06:18 9.05251 110.82277 34817 ft 497 kts 35°
2026-05-07 06:19 9.10880 110.86352 34819 ft 497 kts 35°
2026-05-07 06:19 9.16463 110.90396 34817 ft 497 kts 35°
2026-05-07 06:20 9.22090 110.94474 34832 ft 497 kts 35°
2026-05-07 06:20 9.27716 110.98552 34817 ft 497 kts 35°
2026-05-07 06:21 9.33339 111.02629 34832 ft 498 kts 35°
2026-05-07 06:21 9.38968 111.06713 34820 ft 497 kts 35°
2026-05-07 06:22 9.44556 111.10768 34833 ft 497 kts 35°
2026-05-07 06:22 9.52994 111.16895 34817 ft 498 kts 35°
2026-05-07 06:23 9.58613 111.20984 34818 ft 498 kts 35°
2026-05-07 06:23 9.64205 111.25046 34820 ft 498 kts 35°
2026-05-07 06:24 9.69834 111.29135 34819 ft 498 kts 35°
2026-05-07 06:24 9.75459 111.33225 34824 ft 498 kts 35°
2026-05-07 06:25 9.81091 111.37324 34820 ft 498 kts 35°
2026-05-07 06:25 9.86678 111.41392 34825 ft 498 kts 35°
2026-05-07 06:26 9.92301 111.45488 34825 ft 498 kts 35°
2026-05-07 06:26 9.97924 111.49585 34824 ft 498 kts 35°
2026-05-07 06:27 10.03547 111.53684 34835 ft 498 kts 34°
2026-05-07 06:27 10.09132 111.57757 34824 ft 498 kts 34°
2026-05-07 06:28 10.14758 111.61862 34822 ft 498 kts 34°
2026-05-07 06:28 10.20380 111.65966 34827 ft 498 kts 34°
2026-05-07 06:29 10.25995 111.70067 34822 ft 498 kts 34°
2026-05-07 06:29 10.31578 111.74146 34825 ft 498 kts 34°
2026-05-07 06:30 10.37190 111.78248 34827 ft 497 kts 34°
2026-05-07 06:30 10.42813 111.82360 34827 ft 497 kts 34°
2026-05-07 06:31 10.48428 111.86468 34830 ft 497 kts 34°
2026-05-07 06:31 10.54001 111.90547 34832 ft 497 kts 34°
2026-05-07 06:32 10.59615 111.94658 34831 ft 497 kts 34°
2026-05-07 06:32 10.65222 111.98766 34831 ft 497 kts 34°
2026-05-07 06:33 10.70831 112.02877 34830 ft 497 kts 34°
2026-05-07 06:33 10.76398 112.06959 34832 ft 497 kts 34°
2026-05-07 06:34 10.82004 112.11072 34832 ft 497 kts 34°
2026-05-07 06:34 10.87609 112.15186 34830 ft 497 kts 34°
2026-05-07 06:35 10.93209 112.19298 34833 ft 497 kts 34°
2026-05-07 06:35 10.98816 112.23415 34833 ft 497 kts 34°
2026-05-07 06:36 11.04389 112.27486 34833 ft 497 kts 34°
2026-05-07 06:36 11.10008 112.31590 34833 ft 497 kts 34°
2026-05-07 06:37 11.15617 112.35693 34832 ft 497 kts 34°
2026-05-07 06:37 11.21194 112.39777 34834 ft 497 kts 34°
2026-05-07 06:38 11.26804 112.43888 34833 ft 497 kts 34°
2026-05-07 06:38 11.32410 112.47998 34832 ft 497 kts 34°
2026-05-07 06:39 11.38024 112.52115 34836 ft 497 kts 34°
2026-05-07 06:39 11.43633 112.56231 34836 ft 497 kts 34°
2026-05-07 06:40 11.49204 112.60323 34836 ft 497 kts 34°
2026-05-07 06:40 11.54809 112.64450 34837 ft 497 kts 34°
2026-05-07 06:41 11.60415 112.68583 34833 ft 497 kts 34°
2026-05-07 06:41 11.66019 112.72716 34832 ft 497 kts 34°
2026-05-07 06:42 11.71589 112.76826 34834 ft 497 kts 34°
2026-05-07 06:42 11.77195 112.80963 34840 ft 497 kts 34°
2026-05-07 06:43 11.82802 112.85103 34835 ft 497 kts 33°
2026-05-07 06:43 11.88410 112.89247 34836 ft 497 kts 33°
2026-05-07 06:44 11.93979 112.93364 34835 ft 497 kts 33°
2026-05-07 06:44 11.99577 112.97504 34837 ft 497 kts 34°
2026-05-07 06:45 12.05187 113.01655 34834 ft 497 kts 34°
2026-05-07 06:45 12.10788 113.05802 34837 ft 497 kts 34°
2026-05-07 06:46 12.16385 113.09948 34841 ft 497 kts 34°
2026-05-07 06:46 12.21945 113.14069 34840 ft 497 kts 34°
2026-05-07 06:47 12.27539 113.18218 34842 ft 497 kts 34°
2026-05-07 06:47 12.33135 113.22370 34843 ft 497 kts 34°
2026-05-07 06:48 12.38720 113.26520 34841 ft 496 kts 34°
2026-05-07 06:48 12.44275 113.30639 34842 ft 496 kts 34°
2026-05-07 06:49 12.49872 113.34784 34844 ft 496 kts 34°
2026-05-07 06:49 12.55461 113.38928 34842 ft 496 kts 34°
2026-05-07 06:50 12.61052 113.43078 34841 ft 496 kts 34°
2026-05-07 06:50 12.66640 113.47229 34841 ft 496 kts 34°
2026-05-07 06:51 12.72185 113.51350 34845 ft 496 kts 34°
2026-05-07 06:51 12.77773 113.55505 34842 ft 496 kts 34°
2026-05-07 06:52 12.83356 113.59659 34843 ft 496 kts 34°
2026-05-07 06:52 12.88939 113.63816 34843 ft 496 kts 34°
2026-05-07 06:53 12.94486 113.67947 34841 ft 496 kts 34°
2026-05-07 06:53 13.00067 113.72108 34843 ft 496 kts 34°
2026-05-07 06:54 13.05640 113.76263 34843 ft 496 kts 34°
2026-05-07 06:54 13.11228 113.80433 34843 ft 496 kts 34°
2026-05-07 06:55 13.16810 113.84600 34842 ft 496 kts 34°
2026-05-07 06:55 13.22348 113.88737 34848 ft 496 kts 34°
2026-05-07 06:56 13.27927 113.92907 34843 ft 496 kts 34°
2026-05-07 06:56 13.33507 113.97080 34846 ft 496 kts 34°
2026-05-07 06:57 13.39047 114.01226 34844 ft 496 kts 34°
2026-05-07 06:57 13.44626 114.05403 34848 ft 496 kts 34°
2026-05-07 06:58 13.50199 114.09579 34844 ft 496 kts 34°
2026-05-07 06:58 13.55776 114.13759 34845 ft 496 kts 34°
2026-05-07 06:59 13.61354 114.17943 34845 ft 496 kts 34°
2026-05-07 06:59 13.66887 114.22096 34844 ft 496 kts 34°
2026-05-07 07:00 13.72457 114.26279 34847 ft 496 kts 34°
2026-05-07 07:00 13.78031 114.30467 34844 ft 496 kts 34°
2026-05-07 07:01 13.83600 114.34655 34847 ft 496 kts 34°
2026-05-07 07:01 13.89133 114.38817 34845 ft 496 kts 34°
2026-05-07 07:02 13.94704 114.43012 34844 ft 496 kts 34°
2026-05-07 07:02 13.99856 114.47748 34847 ft 498 kts 44°
2026-05-07 07:03 14.04658 114.52893 34846 ft 498 kts 45°
2026-05-07 07:03 14.09376 114.58066 34848 ft 499 kts 45°
2026-05-07 07:04 14.14125 114.63272 34844 ft 499 kts 45°
2026-05-07 07:04 14.18887 114.68474 34848 ft 499 kts 45°
2026-05-07 07:05 14.23652 114.73674 34852 ft 499 kts 45°
2026-05-07 07:05 14.28419 114.78878 34847 ft 499 kts 45°
2026-05-07 07:06 14.33148 114.84047 34848 ft 499 kts 45°
2026-05-07 07:06 14.37911 114.89256 34849 ft 499 kts 45°
2026-05-07 07:07 14.42675 114.94469 34850 ft 499 kts 45°
2026-05-07 07:07 14.47435 114.99682 34849 ft 499 kts 45°
2026-05-07 07:08 14.52160 115.04860 34847 ft 499 kts 45°
2026-05-07 07:08 14.56921 115.10081 34849 ft 499 kts 45°
2026-05-07 07:09 14.61679 115.15300 34849 ft 499 kts 45°
2026-05-07 07:09 14.66435 115.20524 34851 ft 499 kts 45°
2026-05-07 07:10 14.71158 115.25713 34851 ft 499 kts 45°
2026-05-07 07:10 14.75912 115.30940 34852 ft 499 kts 45°
2026-05-07 07:11 14.80665 115.36169 34850 ft 499 kts 45°
2026-05-07 07:11 14.85410 115.41394 34851 ft 499 kts 45°
2026-05-07 07:12 14.90156 115.46624 34851 ft 499 kts 45°
2026-05-07 07:12 14.94870 115.51820 34852 ft 498 kts 45°
2026-05-07 07:13 14.99611 115.57052 34852 ft 498 kts 45°
2026-05-07 07:13 15.04351 115.62285 34851 ft 498 kts 45°
2026-05-07 07:14 15.09086 115.67516 34851 ft 498 kts 45°
2026-05-07 07:14 15.13784 115.72710 34855 ft 498 kts 45°
2026-05-07 07:15 15.18511 115.77940 34855 ft 497 kts 45°
2026-05-07 07:15 15.23236 115.83171 34853 ft 497 kts 45°
2026-05-07 07:16 15.27961 115.88407 34852 ft 497 kts 45°
2026-05-07 07:16 15.32649 115.93604 34854 ft 497 kts 45°
2026-05-07 07:17 15.37366 115.98838 34855 ft 497 kts 45°
2026-05-07 07:17 15.42083 116.04076 34855 ft 497 kts 45°
2026-05-07 07:18 15.46797 116.09313 34854 ft 497 kts 45°
2026-05-07 07:18 15.51479 116.14519 34853 ft 497 kts 45°
2026-05-07 07:19 15.56188 116.19759 34853 ft 497 kts 45°
2026-05-07 07:19 15.60900 116.25006 34854 ft 497 kts 45°
2026-05-07 07:20 15.65610 116.30254 34855 ft 497 kts 45°
2026-05-07 07:20 15.70323 116.35509 34855 ft 497 kts 45°
2026-05-07 07:21 15.75003 116.40731 34855 ft 497 kts 45°
2026-05-07 07:21 15.79711 116.45989 34853 ft 497 kts 45°
2026-05-07 07:22 15.84422 116.51254 34854 ft 497 kts 45°
2026-05-07 07:22 15.89129 116.56518 34855 ft 498 kts 45°
2026-05-07 07:23 15.93839 116.61790 34854 ft 498 kts 45°
2026-05-07 07:23 15.98518 116.67030 34854 ft 498 kts 45°
2026-05-07 07:24 16.03227 116.72308 34854 ft 498 kts 45°
2026-05-07 07:24 16.07936 116.77590 34852 ft 498 kts 45°
2026-05-07 07:25 16.14972 116.85490 34856 ft 498 kts 46°
2026-05-07 07:26 16.19679 116.90779 34858 ft 499 kts 45°
2026-05-07 07:26 16.24389 116.96077 34855 ft 499 kts 46°
2026-05-07 07:27 16.29100 117.01378 34858 ft 499 kts 46°
2026-05-07 07:27 16.33813 117.06687 34857 ft 499 kts 46°
2026-05-07 07:28 16.38488 117.11958 34857 ft 499 kts 46°
2026-05-07 07:28 16.43200 117.17273 34858 ft 499 kts 46°
2026-05-07 07:29 16.47909 117.22591 34856 ft 499 kts 46°
2026-05-07 07:29 16.52619 117.27914 34855 ft 499 kts 46°
2026-05-07 07:30 16.57295 117.33200 34855 ft 499 kts 46°
2026-05-07 07:30 16.62003 117.38528 34858 ft 499 kts 46°
2026-05-07 07:31 16.66712 117.43861 34857 ft 500 kts 46°
2026-05-07 07:31 16.71414 117.49190 34857 ft 499 kts 46°
2026-05-07 07:32 16.76087 117.54492 34857 ft 499 kts 46°
2026-05-07 07:32 16.80787 117.59827 34856 ft 499 kts 45°
2026-05-07 07:33 16.85489 117.65170 34857 ft 499 kts 46°
2026-05-07 07:33 16.90188 117.70513 34857 ft 499 kts 46°
2026-05-07 07:34 16.94883 117.75856 34858 ft 499 kts 46°
2026-05-07 07:34 16.99548 117.81168 34855 ft 499 kts 46°
2026-05-07 07:35 17.04241 117.86517 34855 ft 499 kts 46°
2026-05-07 07:35 17.08934 117.91870 34858 ft 499 kts 46°
2026-05-07 07:36 17.13629 117.97229 34857 ft 500 kts 46°
2026-05-07 07:36 17.18290 118.02555 34858 ft 500 kts 46°
2026-05-07 07:37 17.22981 118.07920 34860 ft 500 kts 46°
2026-05-07 07:37 17.27673 118.13288 34860 ft 500 kts 46°
2026-05-07 07:38 17.32368 118.18666 34860 ft 500 kts 46°
2026-05-07 07:38 17.37062 118.24045 34861 ft 500 kts 46°
2026-05-07 07:39 17.41723 118.29393 34860 ft 500 kts 46°
2026-05-07 07:39 17.46411 118.34776 34859 ft 501 kts 46°
2026-05-07 07:40 17.51105 118.40169 34856 ft 501 kts 46°
2026-05-07 07:40 17.55795 118.45563 34855 ft 501 kts 46°
2026-05-07 07:41 17.60457 118.50929 34863 ft 501 kts 46°
2026-05-07 07:41 17.65148 118.56332 34858 ft 501 kts 46°
2026-05-07 07:42 17.69840 118.61742 34861 ft 501 kts 46°
2026-05-07 07:42 17.74533 118.67157 34859 ft 502 kts 46°
2026-05-07 07:43 17.79197 118.72542 34860 ft 502 kts 46°
2026-05-07 07:43 17.83887 118.77964 34857 ft 502 kts 46°
2026-05-07 07:44 17.88579 118.83391 34860 ft 502 kts 46°
2026-05-07 07:44 17.93272 118.88825 34862 ft 502 kts 46°
2026-05-07 07:45 17.97170 118.93341 34858 ft 502 kts 46°
2026-05-07 07:45 18.02619 118.99662 34856 ft 502 kts 46°
2026-05-07 07:46 18.07308 119.05105 34858 ft 502 kts 46°
2026-05-07 07:46 18.11206 119.09632 34857 ft 503 kts 46°
2026-05-07 07:47 18.15892 119.15080 34857 ft 503 kts 46°
2026-05-07 07:47 18.21342 119.21422 34855 ft 503 kts 46°
2026-05-07 07:48 18.26030 119.26883 34857 ft 503 kts 46°
2026-05-07 07:48 18.29925 119.31423 34857 ft 503 kts 46°
2026-05-07 07:49 18.34614 119.36895 34857 ft 503 kts 46°
2026-05-07 07:49 18.39302 119.42369 34857 ft 503 kts 46°
2026-05-07 07:50 18.43986 119.47843 34858 ft 503 kts 46°
2026-05-07 07:50 18.48642 119.53290 34858 ft 504 kts 46°
2026-05-07 07:51 18.53330 119.58778 34860 ft 504 kts 46°
2026-05-07 07:51 18.58017 119.64272 34857 ft 504 kts 46°
2026-05-07 07:52 18.62701 119.69769 34859 ft 504 kts 46°
2026-05-07 07:52 18.67360 119.75237 34859 ft 504 kts 46°
2026-05-07 07:53 18.72042 119.80736 34864 ft 504 kts 46°
2026-05-07 07:53 18.76736 119.86256 34863 ft 505 kts 46°
2026-05-07 07:54 18.81420 119.91770 34863 ft 505 kts 46°
2026-05-07 07:54 18.86109 119.97294 34863 ft 505 kts 46°
2026-05-07 07:55 18.90767 120.02787 34863 ft 505 kts 46°
2026-05-07 07:55 18.95454 120.08320 34864 ft 506 kts 46°
2026-05-07 07:56 19.00144 120.13860 34865 ft 506 kts 46°
2026-05-07 07:56 19.04838 120.19411 34862 ft 506 kts 46°
2026-05-07 07:57 19.09530 120.24964 34866 ft 507 kts 46°
2026-05-07 07:57 19.14188 120.30482 34866 ft 507 kts 46°
2026-05-07 07:58 19.18881 120.36047 34867 ft 507 kts 46°
2026-05-07 07:58 19.23576 120.41619 34866 ft 507 kts 46°
2026-05-07 07:59 19.28269 120.47195 34869 ft 507 kts 46°
2026-05-07 07:59 19.32930 120.52737 34869 ft 508 kts 46°
2026-05-07 08:00 19.37628 120.58329 34869 ft 508 kts 46°
2026-05-07 08:00 19.42323 120.63923 34871 ft 508 kts 46°
2026-05-07 08:01 19.46988 120.69492 34872 ft 509 kts 46°
2026-05-07 08:01 19.51688 120.75098 34874 ft 509 kts 46°
2026-05-07 08:02 19.56384 120.80706 34872 ft 509 kts 46°
2026-05-07 08:02 19.61085 120.86327 34871 ft 509 kts 46°
2026-05-07 08:03 19.65783 120.91951 34874 ft 510 kts 46°
2026-05-07 08:03 19.70454 120.97547 34880 ft 510 kts 46°
2026-05-07 08:04 19.75152 121.03183 34877 ft 510 kts 46°
2026-05-07 08:04 19.79856 121.08829 34881 ft 510 kts 46°
2026-05-07 08:05 19.84558 121.14480 34881 ft 511 kts 46°
2026-05-07 08:05 19.89228 121.20097 34883 ft 511 kts 46°
2026-05-07 08:06 19.93932 121.25761 34880 ft 511 kts 46°
2026-05-07 08:06 19.98636 121.31429 34878 ft 511 kts 46°
2026-05-07 08:07 20.03336 121.37100 34887 ft 511 kts 46°
2026-05-07 08:07 20.08043 121.42784 34888 ft 512 kts 46°
2026-05-07 08:08 20.12712 121.48428 34890 ft 512 kts 46°
2026-05-07 08:08 20.17414 121.54116 34882 ft 512 kts 46°
2026-05-07 08:09 20.22118 121.59813 34897 ft 512 kts 46°
2026-05-07 08:09 20.26811 121.65504 34884 ft 512 kts 46°
2026-05-07 08:10 20.31487 121.71177 34886 ft 512 kts 46°
2026-05-07 08:10 20.36183 121.76883 34902 ft 512 kts 46°
2026-05-07 08:11 20.40882 121.82597 34893 ft 512 kts 46°
2026-05-07 08:11 20.45576 121.88310 34893 ft 512 kts 46°
2026-05-07 08:12 20.50239 121.93991 34894 ft 512 kts 46°
2026-05-07 08:12 20.54931 121.99714 34895 ft 512 kts 46°
2026-05-07 08:13 20.59621 122.05440 34895 ft 512 kts 46°
2026-05-07 08:13 20.64309 122.11170 34900 ft 512 kts 46°
2026-05-07 08:14 20.68968 122.16870 34897 ft 513 kts 46°
2026-05-07 08:14 20.73652 122.22606 34905 ft 513 kts 46°
2026-05-07 08:15 20.78336 122.28348 34900 ft 512 kts 46°
2026-05-07 08:15 20.83017 122.34093 34900 ft 512 kts 46°
2026-05-07 08:16 20.87663 122.39800 34902 ft 512 kts 46°
2026-05-07 08:16 20.92340 122.45551 34906 ft 512 kts 46°
2026-05-07 08:17 20.97011 122.51302 34906 ft 512 kts 46°
2026-05-07 08:17 21.02199 122.56422 34907 ft 506 kts 32°
2026-05-07 08:18 21.07980 122.60617 34907 ft 505 kts 30°
2026-05-07 08:18 21.13888 122.64694 34907 ft 505 kts 30°
2026-05-07 08:19 21.19790 122.68762 34907 ft 505 kts 30°
2026-05-07 08:19 21.25679 122.72850 34913 ft 504 kts 30°
2026-05-07 08:20 21.31526 122.76927 34907 ft 504 kts 30°
2026-05-07 08:20 21.37405 122.81033 34911 ft 504 kts 30°
2026-05-07 08:21 21.43276 122.85137 34910 ft 504 kts 30°
2026-05-07 08:21 21.49150 122.89246 34911 ft 504 kts 30°
2026-05-07 08:22 21.54979 122.93327 34912 ft 503 kts 30°
2026-05-07 08:22 21.60843 122.97437 34911 ft 503 kts 30°
2026-05-07 08:23 21.66706 123.01549 34913 ft 503 kts 30°
2026-05-07 08:23 21.72563 123.05662 34914 ft 503 kts 30°
2026-05-07 08:24 21.78416 123.09777 34914 ft 503 kts 30°
2026-05-07 08:24 21.84231 123.13868 34914 ft 502 kts 31°
2026-05-07 08:25 21.90082 123.17989 34915 ft 502 kts 31°
2026-05-07 08:25 21.95925 123.22108 34917 ft 502 kts 31°
2026-05-07 08:26 22.04648 123.28266 34916 ft 502 kts 31°
2026-05-07 08:26 22.10492 123.32396 34918 ft 502 kts 31°
2026-05-07 08:27 22.16330 123.36526 34917 ft 502 kts 31°
2026-05-07 08:27 22.22166 123.40660 34920 ft 502 kts 31°
2026-05-07 08:28 22.27962 123.44768 34916 ft 502 kts 31°
2026-05-07 08:28 22.33789 123.48903 34916 ft 502 kts 31°
2026-05-07 08:29 22.39623 123.53047 34920 ft 501 kts 31°
2026-05-07 08:29 22.45447 123.57189 34919 ft 501 kts 31°
2026-05-07 08:30 22.51271 123.61334 34919 ft 501 kts 31°
2026-05-07 08:30 22.57053 123.65454 34922 ft 501 kts 31°
2026-05-07 08:31 22.62869 123.69603 34923 ft 501 kts 31°
2026-05-07 08:31 22.68688 123.73757 34922 ft 500 kts 31°
2026-05-07 08:32 22.74499 123.77911 34928 ft 500 kts 31°
2026-05-07 08:32 22.80266 123.82038 34926 ft 500 kts 31°
2026-05-07 08:33 22.86068 123.86199 34923 ft 500 kts 31°
2026-05-07 08:33 22.91868 123.90354 34924 ft 500 kts 31°
2026-05-07 08:34 22.97671 123.94516 34929 ft 500 kts 31°
2026-05-07 08:34 23.03462 123.98693 34929 ft 500 kts 31°
2026-05-07 08:35 23.09172 124.02906 34926 ft 500 kts 32°
2026-05-07 08:35 23.14916 124.07167 34926 ft 500 kts 32°
2026-05-07 08:36 23.20661 124.11420 34926 ft 499 kts 31°
2026-05-07 08:36 23.26406 124.15669 34928 ft 499 kts 31°
2026-05-07 08:37 23.32107 124.19889 34935 ft 499 kts 31°
2026-05-07 08:37 23.37337 124.24900 34934 ft 504 kts 44°
2026-05-07 08:38 23.42026 124.30569 34928 ft 505 kts 46°
2026-05-07 08:38 23.46634 124.36350 34929 ft 505 kts 46°
2026-05-07 08:39 23.51207 124.42092 34928 ft 505 kts 46°
2026-05-07 08:39 23.55818 124.47857 34932 ft 505 kts 46°
2026-05-07 08:40 23.60441 124.53628 34938 ft 505 kts 46°
2026-05-07 08:40 23.65058 124.59398 34938 ft 505 kts 46°
2026-05-07 08:41 23.69644 124.65136 34937 ft 505 kts 46°
2026-05-07 08:41 23.74254 124.70912 34927 ft 505 kts 46°
2026-05-07 08:42 23.78874 124.76707 34937 ft 505 kts 46°
2026-05-07 08:42 23.83487 124.82500 34953 ft 505 kts 46°
2026-05-07 08:43 23.88096 124.88296 34934 ft 506 kts 46°
2026-05-07 08:43 23.92677 124.94063 34933 ft 506 kts 46°
2026-05-07 08:44 23.97287 124.99873 34940 ft 506 kts 46°
2026-05-07 08:44 24.01902 125.05695 34940 ft 506 kts 46°
2026-05-07 08:45 24.06511 125.11518 34942 ft 506 kts 46°
2026-05-07 08:45 24.11089 125.17311 34940 ft 507 kts 46°
2026-05-07 08:46 24.15700 125.23150 34946 ft 507 kts 46°
2026-05-07 08:46 24.20308 125.28994 34946 ft 507 kts 46°
2026-05-07 08:47 24.24887 125.34806 34949 ft 507 kts 46°
2026-05-07 08:47 24.29494 125.40663 34949 ft 508 kts 46°
2026-05-07 08:48 24.34107 125.46533 34947 ft 508 kts 46°
2026-05-07 08:48 24.38720 125.52409 34948 ft 508 kts 46°
2026-05-07 08:49 24.43332 125.58294 34950 ft 509 kts 46°
2026-05-07 08:49 24.47920 125.64153 34950 ft 509 kts 46°
2026-05-07 08:50 24.52537 125.70058 34951 ft 510 kts 46°
2026-05-07 08:50 24.57160 125.75977 34953 ft 510 kts 46°
2026-05-07 08:51 24.61782 125.81903 34953 ft 511 kts 46°
2026-05-07 08:51 24.66405 125.87836 34954 ft 511 kts 46°
2026-05-07 08:52 24.71002 125.93745 34957 ft 512 kts 46°
2026-05-07 08:52 24.75633 125.99704 34952 ft 512 kts 46°
2026-05-07 08:53 24.80256 126.05660 34955 ft 513 kts 46°
2026-05-07 08:53 24.84894 126.11643 34956 ft 513 kts 46°
2026-05-07 08:54 24.89498 126.17590 34961 ft 514 kts 46°
2026-05-07 08:54 24.94133 126.23583 34959 ft 514 kts 46°
2026-05-07 08:55 24.98770 126.29587 34960 ft 515 kts 46°
2026-05-07 08:55 25.03409 126.35601 34958 ft 515 kts 46°
2026-05-07 08:56 25.08050 126.41626 34962 ft 516 kts 46°
2026-05-07 08:56 25.12664 126.47624 34962 ft 516 kts 46°
2026-05-07 08:57 25.17306 126.53666 34958 ft 516 kts 46°
2026-05-07 08:57 25.21947 126.59714 34959 ft 516 kts 46°
2026-05-07 08:58 25.26589 126.65770 34965 ft 517 kts 46°
2026-05-07 08:58 25.31204 126.71800 34968 ft 517 kts 46°
2026-05-07 08:59 25.35848 126.77875 34966 ft 518 kts 46°
2026-05-07 08:59 25.40501 126.83971 34966 ft 518 kts 46°
2026-05-07 09:00 25.45149 126.90068 34968 ft 518 kts 46°
2026-05-07 09:00 25.49795 126.96170 34967 ft 519 kts 46°
2026-05-07 09:01 25.54413 127.02244 34965 ft 519 kts 46°
2026-05-07 09:01 25.59062 127.08366 34970 ft 519 kts 46°
2026-05-07 09:02 25.63765 127.14433 34971 ft 519 kts 45°
2026-05-07 09:02 25.68580 127.20383 34973 ft 518 kts 44°
2026-05-07 09:03 25.73365 127.26301 34972 ft 519 kts 45°
2026-05-07 09:03 25.78158 127.32281 34972 ft 519 kts 45°
2026-05-07 09:04 25.82942 127.38280 34967 ft 519 kts 45°
2026-05-07 09:04 25.87721 127.44284 34975 ft 519 kts 45°
2026-05-07 09:05 25.92500 127.50293 34972 ft 519 kts 45°
2026-05-07 09:05 25.97245 127.56268 34955 ft 519 kts 45°
2026-05-07 09:06 26.02017 127.62283 34949 ft 519 kts 45°
2026-05-07 09:06 26.06792 127.68310 34943 ft 519 kts 45°
2026-05-07 09:07 26.11562 127.74340 34941 ft 520 kts 45°
2026-05-07 09:07 26.16454 127.80256 34947 ft 517 kts 38°
2026-05-07 09:08 26.21827 127.85466 34967 ft 515 kts 36°
2026-05-07 09:08 26.27322 127.90591 34964 ft 515 kts 36°
2026-05-07 09:09 26.32835 127.95711 34968 ft 516 kts 36°
2026-05-07 09:09 26.38338 128.00845 34970 ft 516 kts 36°
2026-05-07 09:10 26.43806 128.05966 34976 ft 517 kts 36°
2026-05-07 09:10 26.49313 128.11132 34976 ft 517 kts 36°
2026-05-07 09:11 26.54821 128.16306 34980 ft 518 kts 36°
2026-05-07 09:11 26.60330 128.21487 34981 ft 518 kts 36°
2026-05-07 09:12 26.65850 128.26685 34981 ft 519 kts 36°
2026-05-07 09:12 26.71331 128.31852 34979 ft 519 kts 36°
2026-05-07 09:13 26.76853 128.37065 34978 ft 520 kts 36°
2026-05-07 09:13 26.82380 128.42290 34974 ft 520 kts 36°
2026-05-07 09:14 26.87870 128.47487 34971 ft 520 kts 36°
2026-05-07 09:14 26.93398 128.52726 34970 ft 521 kts 36°
2026-05-07 09:15 26.98928 128.57975 34969 ft 521 kts 36°
2026-05-07 09:15 27.04458 128.63231 34972 ft 521 kts 36°
2026-05-07 09:16 27.09986 128.68491 34976 ft 521 kts 36°
2026-05-07 09:16 27.15481 128.73728 34967 ft 522 kts 36°
2026-05-07 09:17 27.21014 128.79007 34965 ft 522 kts 36°
2026-05-07 09:17 27.26550 128.84297 34977 ft 523 kts 36°
2026-05-07 09:18 27.32095 128.89602 34969 ft 524 kts 36°
2026-05-07 09:18 27.37605 128.94881 34971 ft 525 kts 36°
2026-05-07 09:19 27.43168 129.00218 34978 ft 526 kts 36°
2026-05-07 09:19 27.48734 129.05565 34978 ft 526 kts 36°
2026-05-07 09:20 27.54087 129.11210 34981 ft 531 kts 45°
2026-05-07 09:20 27.58872 129.17502 34978 ft 533 kts 46°
2026-05-07 09:21 27.63602 129.23959 34979 ft 534 kts 47°
2026-05-07 09:21 27.68321 129.30430 34981 ft 534 kts 47°
2026-05-07 09:22 27.73050 129.36899 34981 ft 534 kts 47°
2026-05-07 09:22 27.77754 129.43327 34983 ft 535 kts 47°
2026-05-07 09:23 27.82495 129.49813 34978 ft 535 kts 47°
2026-05-07 09:23 27.87226 129.56295 34980 ft 535 kts 47°
2026-05-07 09:24 27.91955 129.62785 34977 ft 535 kts 47°
2026-05-07 09:24 27.96676 129.69274 34982 ft 535 kts 47°
2026-05-07 09:25 28.01371 129.75739 34978 ft 534 kts 47°
2026-05-07 09:25 28.06087 129.82241 34978 ft 534 kts 47°
2026-05-07 09:26 28.10792 129.88737 34972 ft 534 kts 47°
2026-05-07 09:26 28.15470 129.95207 34970 ft 534 kts 47°
2026-05-07 09:27 28.20173 130.01722 34970 ft 534 kts 47°
2026-05-07 09:28 28.27220 130.11501 34971 ft 534 kts 47°
2026-05-07 09:28 28.31912 130.18024 34976 ft 534 kts 47°
2026-05-07 09:29 28.36568 130.24509 34980 ft 534 kts 47°
2026-05-07 09:29 28.41254 130.31044 34977 ft 533 kts 47°
2026-05-07 09:30 28.45931 130.37578 34979 ft 533 kts 47°
2026-05-07 09:30 28.50606 130.44119 34977 ft 533 kts 47°
2026-05-07 09:31 28.55245 130.50619 34978 ft 533 kts 47°
2026-05-07 09:31 28.59918 130.57178 34972 ft 533 kts 47°
2026-05-07 09:32 28.64586 130.63740 34978 ft 533 kts 47°
2026-05-07 09:32 28.69253 130.70309 34975 ft 534 kts 47°
2026-05-07 09:33 28.73890 130.76847 34980 ft 534 kts 47°
2026-05-07 09:33 28.78556 130.83437 34963 ft 535 kts 47°
2026-05-07 09:34 28.83227 130.90045 34964 ft 535 kts 47°
2026-05-07 09:34 28.87893 130.96655 34982 ft 535 kts 47°
2026-05-07 09:35 28.92552 131.03265 34981 ft 534 kts 47°
2026-05-07 09:35 28.97171 131.09830 34965 ft 534 kts 47°
2026-05-07 09:36 29.01820 131.16448 34973 ft 534 kts 47°
2026-05-07 09:36 29.06459 131.23062 34970 ft 533 kts 47°
2026-05-07 09:37 29.11094 131.29682 34967 ft 533 kts 47°
2026-05-07 09:37 29.15687 131.36252 34967 ft 532 kts 47°
2026-05-07 09:38 29.20307 131.42870 34968 ft 532 kts 47°
2026-05-07 09:38 29.24925 131.49496 34967 ft 532 kts 47°
2026-05-07 09:39 29.29536 131.56124 34968 ft 532 kts 47°
2026-05-07 09:39 29.34112 131.62711 34968 ft 532 kts 47°
2026-05-07 09:40 29.38721 131.69357 34967 ft 533 kts 47°
2026-05-07 09:40 29.43332 131.76016 34965 ft 533 kts 47°
2026-05-07 09:41 29.47939 131.82680 34967 ft 533 kts 48°
2026-05-07 09:41 29.52512 131.89306 34963 ft 533 kts 48°
2026-05-07 09:42 29.57114 131.95985 34964 ft 533 kts 48°
2026-05-07 09:42 29.61713 132.02671 34965 ft 533 kts 48°
2026-05-07 09:43 29.66308 132.09360 34964 ft 533 kts 48°
2026-05-07 09:43 29.70984 132.15966 34964 ft 532 kts 46°
2026-05-07 09:44 29.75667 132.22473 34960 ft 532 kts 46°
2026-05-07 09:44 29.80371 132.29043 34962 ft 531 kts 47°
2026-05-07 09:45 29.85053 132.35626 34962 ft 531 kts 47°
2026-05-07 09:45 29.89730 132.42222 34957 ft 531 kts 47°
2026-05-07 09:46 29.94370 132.48777 34956 ft 531 kts 47°
2026-05-07 09:46 29.99039 132.55382 34956 ft 532 kts 47°
2026-05-07 09:47 30.03708 132.61997 34955 ft 532 kts 47°
2026-05-07 09:47 30.08375 132.68620 34960 ft 532 kts 47°
2026-05-07 09:48 30.13042 132.75255 34953 ft 532 kts 47°
2026-05-07 09:48 30.17673 132.81850 34957 ft 532 kts 47°
2026-05-07 09:49 30.22328 132.88488 34955 ft 532 kts 47°
2026-05-07 09:49 30.26983 132.95140 34952 ft 531 kts 47°
2026-05-07 09:50 30.31597 133.01742 34950 ft 531 kts 47°
2026-05-07 09:50 30.36232 133.08387 34954 ft 531 kts 48°
2026-05-07 09:51 30.40870 133.15046 34951 ft 530 kts 48°
2026-05-07 09:51 30.45496 133.21700 34950 ft 531 kts 48°
2026-05-07 09:52 30.50123 133.28365 34950 ft 531 kts 48°
2026-05-07 09:52 30.54716 133.34993 34949 ft 530 kts 48°
2026-05-07 09:53 30.59334 133.41667 34951 ft 530 kts 48°
2026-05-07 09:53 30.63948 133.48349 34949 ft 531 kts 48°
2026-05-07 09:54 30.68561 133.55039 34950 ft 530 kts 49°
2026-05-07 09:54 30.73171 133.61737 34947 ft 530 kts 49°
2026-05-07 09:55 30.77736 133.68381 34947 ft 530 kts 49°
2026-05-07 09:55 30.82330 133.75079 34949 ft 530 kts 49°
2026-05-07 09:56 30.86926 133.81787 34951 ft 529 kts 49°
2026-05-07 09:56 30.91513 133.88492 34947 ft 529 kts 49°
2026-05-07 09:57 30.96062 133.95154 34949 ft 529 kts 49°
2026-05-07 09:57 31.00643 134.01874 34952 ft 529 kts 49°
2026-05-07 09:58 31.05218 134.08597 34953 ft 529 kts 49°
2026-05-07 09:58 31.09786 134.15321 34950 ft 529 kts 49°
2026-05-07 09:59 31.14320 134.22007 34955 ft 529 kts 49°
2026-05-07 09:59 31.18882 134.28745 34958 ft 529 kts 49°
2026-05-07 10:00 31.23440 134.35489 34956 ft 529 kts 49°
2026-05-07 10:00 31.27992 134.42237 34952 ft 529 kts 50°
2026-05-07 10:01 31.32515 134.48951 34955 ft 529 kts 50°
2026-05-07 10:01 31.37062 134.55715 34952 ft 529 kts 50°
2026-05-07 10:02 31.41610 134.62491 34956 ft 529 kts 50°
2026-05-07 10:02 31.46154 134.69272 34960 ft 530 kts 50°
2026-05-07 10:03 31.50697 134.76065 34960 ft 530 kts 50°
2026-05-07 10:03 31.55213 134.82829 34959 ft 530 kts 50°
2026-05-07 10:04 31.59754 134.89642 34959 ft 530 kts 50°
2026-05-07 10:04 31.64293 134.96464 34958 ft 531 kts 50°
2026-05-07 10:05 31.68835 135.03303 34959 ft 531 kts 50°
2026-05-07 10:05 31.73363 135.10076 34957 ft 530 kts 48°
2026-05-07 10:06 31.78273 135.16519 34957 ft 529 kts 45°
2026-05-07 10:06 31.83295 135.22835 34961 ft 529 kts 45°
2026-05-07 10:07 31.88269 135.29215 34959 ft 529 kts 46°
2026-05-07 10:07 31.93195 135.35639 34965 ft 529 kts 46°
2026-05-07 10:08 31.98074 135.42040 34965 ft 529 kts 46°
2026-05-07 10:08 32.02988 135.48496 34961 ft 529 kts 46°
2026-05-07 10:09 32.07896 135.54951 34962 ft 529 kts 46°
2026-05-07 10:09 32.12803 135.61413 34957 ft 529 kts 46°
2026-05-07 10:10 32.17670 135.67833 34954 ft 529 kts 46°
2026-05-07 10:10 32.22568 135.74306 34956 ft 528 kts 46°
2026-05-07 10:11 32.27464 135.80787 34965 ft 528 kts 46°
2026-05-07 10:11 32.32349 135.87266 34961 ft 529 kts 46°
2026-05-07 10:12 32.37214 135.93728 34963 ft 529 kts 46°
2026-05-07 10:12 32.42071 136.00261 34958 ft 530 kts 50°
2026-05-07 10:13 32.46273 136.07449 34967 ft 531 kts 56°
2026-05-07 10:13 32.50272 136.14813 34961 ft 532 kts 56°
2026-05-07 10:14 32.54217 136.22172 34969 ft 532 kts 56°
2026-05-07 10:14 32.58195 136.29584 34961 ft 533 kts 56°
2026-05-07 10:15 32.62178 136.36998 34966 ft 533 kts 56°
2026-05-07 10:15 32.66158 136.44413 34970 ft 533 kts 56°
2026-05-07 10:16 32.70106 136.51783 34959 ft 532 kts 56°
2026-05-07 10:16 32.74072 136.59203 34962 ft 532 kts 56°
2026-05-07 10:17 32.78031 136.66623 34962 ft 531 kts 56°
2026-05-07 10:17 32.81979 136.74040 34969 ft 531 kts 56°
2026-05-07 10:18 32.85922 136.81459 34967 ft 530 kts 56°
2026-05-07 10:18 32.89830 136.88828 34962 ft 531 kts 56°
2026-05-07 10:19 32.93762 136.96257 34966 ft 531 kts 57°
2026-05-07 10:19 32.97695 137.03702 34961 ft 531 kts 57°
2026-05-07 10:20 33.01601 137.11111 34963 ft 532 kts 57°
2026-05-07 10:20 33.04896 137.17374 34967 ft 533 kts 57°
2026-05-07 10:21 33.09479 137.26101 34964 ft 535 kts 57°
2026-05-07 10:21 33.13425 137.33632 34967 ft 536 kts 57°
2026-05-07 10:22 33.17381 137.41199 34967 ft 538 kts 58°
2026-05-07 10:22 33.21316 137.48740 34968 ft 539 kts 58°
2026-05-07 10:23 33.25286 137.56355 34969 ft 541 kts 58°
2026-05-07 10:23 33.29260 137.63994 34964 ft 542 kts 58°
2026-05-07 10:24 33.33240 137.71661 34965 ft 543 kts 58°
2026-05-07 10:24 33.37194 137.79298 34964 ft 544 kts 58°
2026-05-07 10:25 33.41176 137.87001 34965 ft 545 kts 58°
2026-05-07 10:25 33.44486 137.93422 34967 ft 546 kts 58°
2026-05-07 10:26 33.49148 138.02482 34968 ft 547 kts 58°
2026-05-07 10:26 33.52463 138.08929 34967 ft 547 kts 58°
2026-05-07 10:27 33.56457 138.16706 34967 ft 548 kts 58°
2026-05-07 10:27 33.61095 138.25773 34966 ft 549 kts 58°
2026-05-07 10:28 33.64415 138.32278 34963 ft 550 kts 58°
2026-05-07 10:28 33.68412 138.40124 34962 ft 551 kts 58°
2026-05-07 10:29 33.72412 138.47990 34964 ft 552 kts 59°
2026-05-07 10:29 33.76409 138.55869 34965 ft 552 kts 59°
2026-05-07 10:30 33.82377 138.67659 34960 ft 553 kts 59°
2026-05-07 10:30 33.86369 138.75567 34964 ft 553 kts 59°
2026-05-07 10:31 33.90362 138.83493 34964 ft 553 kts 59°
2026-05-07 10:31 33.94346 138.91421 34964 ft 554 kts 59°
2026-05-07 10:32 33.98301 138.99308 34965 ft 554 kts 59°
2026-05-07 10:32 34.02275 139.07251 34961 ft 554 kts 59°
2026-05-07 10:33 34.04264 139.11224 35137 ft 548 kts 60°
2026-05-07 10:33 34.06206 139.15110 35873 ft 533 kts 60°
2026-05-07 10:33 34.08101 139.18911 36539 ft 524 kts 60°
2026-05-07 10:33 34.09967 139.22661 36882 ft 521 kts 60°
2026-05-07 10:34 34.13685 139.30157 36955 ft 528 kts 60°
2026-05-07 10:34 34.17464 139.37783 36956 ft 529 kts 60°
2026-05-07 10:35 34.21241 139.45405 36955 ft 529 kts 60°
2026-05-07 10:35 34.25016 139.53041 36954 ft 529 kts 60°
2026-05-07 10:36 34.28788 139.60691 36953 ft 530 kts 61°
2026-05-07 10:36 34.32534 139.68305 36949 ft 530 kts 61°
2026-05-07 10:37 34.36304 139.75986 36950 ft 531 kts 61°
2026-05-07 10:37 34.40069 139.83671 36946 ft 531 kts 61°
2026-05-07 10:38 34.43836 139.91378 36945 ft 532 kts 61°
2026-05-07 10:38 34.47573 139.99041 36941 ft 532 kts 61°
2026-05-07 10:39 34.51332 140.06765 36939 ft 532 kts 61°
2026-05-07 10:39 34.55093 140.14511 36942 ft 533 kts 61°
2026-05-07 10:40 34.58847 140.22260 36941 ft 533 kts 61°
2026-05-07 10:40 34.62576 140.29971 36935 ft 533 kts 61°
2026-05-07 10:41 34.66319 140.37732 36938 ft 533 kts 61°
2026-05-07 10:41 34.70068 140.45522 36941 ft 534 kts 61°
2026-05-07 10:42 34.73731 140.53373 36941 ft 534 kts 63°
2026-05-07 10:42 34.77303 140.61209 36942 ft 534 kts 63°
2026-05-07 10:43 34.80910 140.69114 36939 ft 534 kts 63°
2026-05-07 10:43 34.84521 140.77012 36942 ft 534 kts 63°
2026-05-07 10:44 34.88136 140.84923 36941 ft 534 kts 63°
2026-05-07 10:44 34.91745 140.92838 36940 ft 535 kts 63°
2026-05-07 10:45 34.95324 141.00706 36940 ft 535 kts 63°
2026-05-07 10:45 34.98929 141.08652 36939 ft 535 kts 63°
2026-05-07 10:46 35.02529 141.16604 36942 ft 536 kts 63°
2026-05-07 10:46 35.06122 141.24562 36940 ft 536 kts 63°
2026-05-07 10:47 35.09693 141.32486 36940 ft 536 kts 63°
2026-05-07 10:47 35.13287 141.40481 36944 ft 537 kts 63°
2026-05-07 10:48 35.16877 141.48487 36944 ft 537 kts 63°
2026-05-07 10:48 35.20463 141.56502 36941 ft 538 kts 63°
2026-05-07 10:49 35.24026 141.64484 36942 ft 538 kts 63°
2026-05-07 10:49 35.27609 141.72531 36945 ft 539 kts 63°
2026-05-07 10:50 35.31190 141.80589 36946 ft 539 kts 63°
2026-05-07 10:50 35.34767 141.88660 36944 ft 539 kts 63°
2026-05-07 10:51 35.38320 141.96696 36949 ft 540 kts 63°
2026-05-07 10:51 35.41888 142.04786 36943 ft 540 kts 63°
2026-05-07 10:52 35.45455 142.12890 36943 ft 540 kts 63°
2026-05-07 10:52 35.49014 142.20999 36948 ft 540 kts 63°
2026-05-07 10:53 35.52575 142.29130 36944 ft 540 kts 63°
2026-05-07 10:53 35.56103 142.37205 36943 ft 541 kts 63°
2026-05-07 10:54 35.59651 142.45346 36945 ft 541 kts 63°
2026-05-07 10:54 35.63196 142.53501 36946 ft 541 kts 63°
2026-05-07 10:55 35.66735 142.61660 36947 ft 541 kts 63°
2026-05-07 10:55 35.70247 142.69777 36948 ft 541 kts 63°
2026-05-07 10:56 35.73779 142.77960 36946 ft 542 kts 63°
2026-05-07 10:56 35.77309 142.86158 36947 ft 542 kts 63°
2026-05-07 10:57 35.80834 142.94367 36949 ft 543 kts 63°
2026-05-07 10:57 35.84336 143.02541 36951 ft 543 kts 63°
2026-05-07 10:58 35.87858 143.10783 36955 ft 543 kts 63°
2026-05-07 10:58 35.91345 143.19050 36948 ft 544 kts 66°
2026-05-07 10:59 35.93484 143.27911 36957 ft 538 kts 83°
2026-05-07 10:59 35.94542 143.36989 36962 ft 538 kts 86°
2026-05-07 11:00 35.95442 143.46160 36962 ft 538 kts 86°
2026-05-07 11:00 35.96341 143.55336 36966 ft 539 kts 86°
2026-05-07 11:01 35.97261 143.64526 36971 ft 540 kts 86°
2026-05-07 11:01 35.98188 143.73733 36978 ft 541 kts 86°
2026-05-07 11:02 35.99103 143.82886 36969 ft 541 kts 86°
2026-05-07 11:02 36.00018 143.92119 36974 ft 541 kts 86°
2026-05-07 11:03 36.00925 144.01344 36977 ft 542 kts 86°
2026-05-07 11:03 36.01825 144.10584 36978 ft 542 kts 86°
2026-05-07 11:04 36.02712 144.19765 36980 ft 542 kts 86°
2026-05-07 11:04 36.03598 144.29008 36985 ft 542 kts 86°
2026-05-07 11:05 36.04478 144.38268 36990 ft 543 kts 86°
2026-05-07 11:05 36.05351 144.47534 36994 ft 543 kts 86°
2026-05-07 11:06 36.06218 144.56805 36989 ft 543 kts 86°
2026-05-07 11:06 36.07073 144.66030 36998 ft 544 kts 86°
2026-05-07 11:07 36.07926 144.75319 37001 ft 544 kts 86°
2026-05-07 11:07 36.08773 144.84611 37003 ft 544 kts 86°
2026-05-07 11:08 36.09607 144.93844 37011 ft 544 kts 86°
2026-05-07 11:08 36.10440 145.03144 37009 ft 544 kts 86°
2026-05-07 11:09 36.11266 145.12462 37014 ft 545 kts 86°
2026-05-07 11:09 36.12086 145.21777 37019 ft 545 kts 86°
2026-05-07 11:10 36.12898 145.31097 37015 ft 545 kts 86°
2026-05-07 11:10 36.13698 145.40360 37023 ft 545 kts 86°
2026-05-07 11:11 36.14895 145.49624 37023 ft 547 kts 78°
2026-05-07 11:11 36.16730 145.58771 37038 ft 548 kts 77°
2026-05-07 11:12 36.18657 145.67896 37031 ft 548 kts 76°
2026-05-07 11:12 36.20567 145.76971 37024 ft 548 kts 76°
2026-05-07 11:13 36.22467 145.86112 37034 ft 548 kts 77°
2026-05-07 11:13 36.24355 145.95272 37035 ft 549 kts 77°
2026-05-07 11:14 36.26234 146.04427 37042 ft 549 kts 76°
2026-05-07 11:14 36.28097 146.13541 37043 ft 549 kts 76°
2026-05-07 11:15 36.29966 146.22719 37040 ft 549 kts 76°
2026-05-07 11:15 36.31827 146.31894 37038 ft 549 kts 76°
2026-05-07 11:16 36.33681 146.41079 37057 ft 549 kts 76°
2026-05-07 11:16 36.35529 146.50270 37055 ft 549 kts 76°
2026-05-07 11:17 36.37356 146.59399 37046 ft 549 kts 76°
2026-05-07 11:17 36.39190 146.68597 37062 ft 549 kts 76°
2026-05-07 11:18 36.41016 146.77799 37062 ft 549 kts 76°
2026-05-07 11:18 36.42824 146.86948 37045 ft 549 kts 76°
2026-05-07 11:19 36.44637 146.96164 37056 ft 549 kts 76°
2026-05-07 11:19 36.46443 147.05384 37059 ft 550 kts 76°
2026-05-07 11:20 36.48243 147.14615 37057 ft 550 kts 76°
2026-05-07 11:20 36.50036 147.23848 37059 ft 550 kts 76°
2026-05-07 11:21 36.51810 147.33027 37061 ft 550 kts 76°
2026-05-07 11:21 36.53592 147.42283 37067 ft 550 kts 76°
2026-05-07 11:22 36.55364 147.51532 37064 ft 550 kts 76°
2026-05-07 11:22 36.57132 147.60802 37065 ft 550 kts 76°
2026-05-07 11:23 36.58878 147.69998 37070 ft 550 kts 76°
2026-05-07 11:23 36.60632 147.79277 37071 ft 551 kts 76°
2026-05-07 11:24 36.62377 147.88554 37061 ft 551 kts 76°
2026-05-07 11:24 36.64117 147.97839 37076 ft 551 kts 76°
2026-05-07 11:25 36.65836 148.07061 37081 ft 551 kts 76°
2026-05-07 11:25 36.67560 148.16351 37067 ft 551 kts 76°
2026-05-07 11:26 36.69278 148.25651 37065 ft 551 kts 76°
2026-05-07 11:26 36.70988 148.34952 37075 ft 551 kts 76°
2026-05-07 11:27 36.72678 148.44188 37085 ft 551 kts 76°
2026-05-07 11:27 36.74376 148.53507 37072 ft 551 kts 76°
2026-05-07 11:28 36.76064 148.62822 37073 ft 551 kts 76°
2026-05-07 11:28 36.77744 148.72131 37090 ft 550 kts 76°
2026-05-07 11:29 36.79418 148.81451 37079 ft 550 kts 76°
2026-05-07 11:29 36.81073 148.90714 37083 ft 550 kts 76°
2026-05-07 11:30 36.82730 149.00028 37083 ft 550 kts 76°
2026-05-07 11:30 36.84380 149.09352 37086 ft 550 kts 76°
2026-05-07 11:31 36.86021 149.18669 37087 ft 550 kts 76°
2026-05-07 11:31 36.87654 149.27985 37087 ft 549 kts 76°
2026-05-07 11:32 36.90081 149.41912 37089 ft 549 kts 76°
2026-05-07 11:33 36.91695 149.51237 37087 ft 549 kts 77°
2026-05-07 11:33 36.93303 149.60568 37095 ft 549 kts 77°
2026-05-07 11:34 36.94891 149.69829 37092 ft 549 kts 77°
2026-05-07 11:34 36.96482 149.79158 37095 ft 548 kts 77°
2026-05-07 11:35 36.98065 149.88481 37097 ft 548 kts 77°
2026-05-07 11:35 36.99759 149.97764 37096 ft 546 kts 70°
2026-05-07 11:35 37.01167 150.02141 37199 ft 540 kts 59°
2026-05-07 11:36 37.02921 150.06276 37417 ft 539 kts 58°
2026-05-07 11:36 37.04740 150.10308 37601 ft 538 kts 57°
2026-05-07 11:36 37.06623 150.14356 37819 ft 537 kts 56°
2026-05-07 11:36 37.08518 150.18385 38045 ft 537 kts 56°
2026-05-07 11:37 37.10410 150.22407 38264 ft 536 kts 56°
2026-05-07 11:37 37.12293 150.26425 38466 ft 535 kts 56°
2026-05-07 11:37 37.14173 150.30459 38662 ft 535 kts 56°
2026-05-07 11:37 37.16042 150.34487 38853 ft 534 kts 56°
2026-05-07 11:38 37.17881 150.38465 38986 ft 534 kts 57°
2026-05-07 11:38 37.19741 150.42496 39088 ft 535 kts 57°
2026-05-07 11:38 37.21604 150.46539 39108 ft 535 kts 57°
2026-05-07 11:39 37.25313 150.54607 39110 ft 534 kts 57°
2026-05-07 11:39 37.29014 150.62674 39109 ft 533 kts 57°
2026-05-07 11:40 37.32711 150.70749 39111 ft 533 kts 57°
2026-05-07 11:40 37.36375 150.78773 39113 ft 532 kts 57°
2026-05-07 11:41 37.40053 150.86847 39115 ft 532 kts 57°
2026-05-07 11:41 37.43721 150.94918 39116 ft 531 kts 57°
2026-05-07 11:42 37.47383 151.02997 39115 ft 531 kts 57°
2026-05-07 11:42 37.51008 151.11016 39117 ft 530 kts 57°
2026-05-07 11:43 37.54649 151.19088 39117 ft 530 kts 57°
2026-05-07 11:43 37.58283 151.27164 39121 ft 529 kts 58°
2026-05-07 11:44 37.61905 151.35235 39120 ft 529 kts 58°
2026-05-07 11:44 37.65498 151.43263 39119 ft 529 kts 58°
2026-05-07 11:45 37.69108 151.51347 39121 ft 529 kts 58°
2026-05-07 11:45 37.72714 151.59442 39125 ft 529 kts 58°
2026-05-07 11:46 37.76312 151.67540 39131 ft 529 kts 58°
2026-05-07 11:46 37.79906 151.75649 39122 ft 529 kts 58°
2026-05-07 11:47 37.83475 151.83721 39136 ft 529 kts 58°
2026-05-07 11:47 37.87059 151.91848 39128 ft 529 kts 58°
2026-05-07 11:48 37.90644 151.99998 39125 ft 530 kts 58°
2026-05-07 11:48 37.94219 152.08146 39125 ft 530 kts 58°
2026-05-07 11:49 37.97771 152.16264 39126 ft 530 kts 58°
2026-05-07 11:49 38.01338 152.24435 39131 ft 530 kts 58°
2026-05-07 11:50 38.04905 152.32626 39127 ft 530 kts 58°
2026-05-07 11:50 38.08469 152.40834 39134 ft 531 kts 58°
2026-05-07 11:51 38.12025 152.49043 39132 ft 531 kts 58°
2026-05-07 11:51 38.15559 152.57222 39132 ft 531 kts 58°
2026-05-07 11:52 38.19106 152.65453 39136 ft 532 kts 58°
2026-05-07 11:52 38.22654 152.73706 39140 ft 532 kts 58°
2026-05-07 11:53 38.26198 152.81975 39140 ft 533 kts 58°
2026-05-07 11:53 38.29742 152.90263 39139 ft 533 kts 58°
2026-05-07 11:54 38.33257 152.98506 39141 ft 533 kts 58°
2026-05-07 11:54 38.36793 153.06819 39140 ft 534 kts 58°
2026-05-07 11:55 38.40326 153.15146 39139 ft 534 kts 58°
2026-05-07 11:55 38.43856 153.23489 39143 ft 534 kts 58°
2026-05-07 11:56 38.47357 153.31787 39146 ft 535 kts 58°
2026-05-07 11:56 38.50879 153.40154 39147 ft 535 kts 58°
2026-05-07 11:57 38.54396 153.48535 39147 ft 536 kts 58°
2026-05-07 11:57 38.57916 153.56942 39145 ft 536 kts 58°
2026-05-07 11:58 38.61429 153.65358 39148 ft 537 kts 58°
2026-05-07 11:58 38.64916 153.73731 39153 ft 537 kts 58°
2026-05-07 11:59 38.68422 153.82175 39154 ft 538 kts 58°
2026-05-07 11:59 38.71922 153.90627 39154 ft 538 kts 58°
2026-05-07 12:00 38.75424 153.99106 39155 ft 538 kts 58°
2026-05-07 12:00 38.78895 154.07534 39155 ft 539 kts 58°
2026-05-07 12:01 38.82386 154.16033 39161 ft 539 kts 58°
2026-05-07 12:01 38.85875 154.24549 39158 ft 539 kts 58°
2026-05-07 12:02 38.89360 154.33081 39160 ft 540 kts 58°
2026-05-07 12:02 38.92842 154.41628 39158 ft 540 kts 58°
2026-05-07 12:03 38.96294 154.50126 39157 ft 541 kts 58°
2026-05-07 12:03 38.99767 154.58699 39163 ft 541 kts 58°
2026-05-07 12:04 39.03238 154.67291 39163 ft 541 kts 58°
2026-05-07 12:04 39.06704 154.75895 39163 ft 542 kts 58°
2026-05-07 12:05 39.10144 154.84456 39166 ft 542 kts 58°
2026-05-07 12:05 39.13603 154.93090 39163 ft 542 kts 58°
2026-05-07 12:06 39.17056 155.01737 39167 ft 542 kts 58°
2026-05-07 12:06 39.20501 155.10385 39160 ft 543 kts 58°
2026-05-07 12:07 39.23919 155.18990 39164 ft 543 kts 58°
2026-05-07 12:07 39.27356 155.27667 39166 ft 543 kts 58°
2026-05-07 12:08 39.30788 155.36356 39168 ft 543 kts 58°
2026-05-07 12:08 39.34214 155.45055 39164 ft 544 kts 58°
2026-05-07 12:09 39.37612 155.53709 39168 ft 544 kts 58°
2026-05-07 12:09 39.41028 155.62433 39170 ft 544 kts 58°
2026-05-07 12:10 39.44438 155.71167 39168 ft 544 kts 58°
2026-05-07 12:10 39.47845 155.79917 39169 ft 544 kts 58°
2026-05-07 12:11 39.51221 155.88614 39169 ft 544 kts 58°
2026-05-07 12:11 39.54611 155.97374 39169 ft 544 kts 58°
2026-05-07 12:12 39.58000 156.06155 39170 ft 544 kts 58°
2026-05-07 12:12 39.61379 156.14936 39170 ft 544 kts 58°
2026-05-07 12:13 39.64729 156.23668 39167 ft 544 kts 58°
2026-05-07 12:13 39.68094 156.32464 39170 ft 544 kts 58°
2026-05-07 12:14 39.71452 156.41267 39175 ft 544 kts 58°
2026-05-07 12:14 39.74804 156.50082 39171 ft 544 kts 58°
2026-05-07 12:15 39.78146 156.58896 39164 ft 544 kts 58°
2026-05-07 12:15 39.81457 156.67655 39164 ft 543 kts 58°
2026-05-07 12:16 39.84782 156.76476 39173 ft 543 kts 58°
2026-05-07 12:16 39.88100 156.85305 39164 ft 543 kts 58°
2026-05-07 12:17 39.91407 156.94130 39158 ft 542 kts 58°
2026-05-07 12:17 39.94686 157.02907 39172 ft 542 kts 58°
2026-05-07 12:18 39.97975 157.11737 39166 ft 542 kts 58°
2026-05-07 12:18 40.01260 157.20585 39173 ft 542 kts 58°
2026-05-07 12:19 40.04536 157.29434 39172 ft 541 kts 58°
2026-05-07 12:19 40.07783 157.38229 39172 ft 541 kts 58°
2026-05-07 12:20 40.11041 157.47082 39177 ft 541 kts 58°
2026-05-07 12:20 40.14296 157.55954 39176 ft 541 kts 58°
2026-05-07 12:21 40.17542 157.64827 39179 ft 541 kts 58°
2026-05-07 12:21 40.20784 157.73715 39175 ft 541 kts 58°
2026-05-07 12:22 40.23994 157.82545 39175 ft 541 kts 58°
2026-05-07 12:22 40.27222 157.91450 39177 ft 541 kts 58°
2026-05-07 12:23 40.30441 158.00360 39177 ft 541 kts 58°
2026-05-07 12:23 40.33648 158.09263 39179 ft 540 kts 58°
2026-05-07 12:24 40.36828 158.18119 39176 ft 540 kts 58°
2026-05-07 12:24 40.40020 158.27035 39184 ft 540 kts 58°
2026-05-07 12:25 40.43203 158.35954 39180 ft 540 kts 58°
2026-05-07 12:25 40.46379 158.44880 39178 ft 539 kts 58°
2026-05-07 12:26 40.49542 158.53799 39180 ft 539 kts 58°
2026-05-07 12:26 40.52680 158.62673 39179 ft 539 kts 58°
2026-05-07 12:27 40.55828 158.71603 39181 ft 538 kts 58°
2026-05-07 12:27 40.58972 158.80549 39177 ft 538 kts 58°
2026-05-07 12:28 40.62103 158.89487 39185 ft 538 kts 58°
2026-05-07 12:28 40.65228 158.98436 39181 ft 538 kts 58°
2026-05-07 12:29 40.68322 159.07324 39180 ft 537 kts 58°
2026-05-07 12:29 40.71432 159.16285 39184 ft 537 kts 58°
2026-05-07 12:30 40.74532 159.25248 39183 ft 537 kts 58°
2026-05-07 12:30 40.77624 159.34214 39187 ft 537 kts 58°
2026-05-07 12:31 40.80687 159.43126 39186 ft 537 kts 58°
2026-05-07 12:31 40.83758 159.52088 39181 ft 536 kts 58°
2026-05-07 12:32 40.86829 159.61078 39183 ft 536 kts 58°
2026-05-07 12:32 40.89887 159.70062 39183 ft 536 kts 58°
2026-05-07 12:33 40.94438 159.83481 39176 ft 535 kts 58°
2026-05-07 12:33 40.97475 159.92473 39182 ft 535 kts 58°
2026-05-07 12:34 41.00503 160.01466 39184 ft 535 kts 58°
2026-05-07 12:34 41.03643 160.10364 39186 ft 532 kts 56°
2026-05-07 12:35 41.06834 160.19144 39185 ft 532 kts 56°
2026-05-07 12:35 41.10021 160.27992 39182 ft 532 kts 56°
2026-05-07 12:36 41.13182 160.36863 39183 ft 532 kts 56°
2026-05-07 12:36 41.16331 160.45753 39182 ft 532 kts 56°
2026-05-07 12:37 41.19467 160.54637 39182 ft 532 kts 56°
2026-05-07 12:37 41.22578 160.63473 39183 ft 531 kts 56°
2026-05-07 12:38 41.25173 160.70864 39185 ft 531 kts 56°
2026-05-07 12:38 41.28814 160.81267 39189 ft 531 kts 56°
2026-05-07 12:39 41.31899 160.90108 39183 ft 530 kts 56°
2026-05-07 12:39 41.34992 160.99005 39182 ft 530 kts 56°
2026-05-07 12:40 41.38079 161.07909 39170 ft 530 kts 56°
2026-05-07 12:40 41.41157 161.16818 39178 ft 529 kts 56°
2026-05-07 12:41 41.44228 161.25733 39181 ft 529 kts 56°
2026-05-07 12:41 41.47269 161.34590 39180 ft 529 kts 57°
2026-05-07 12:42 41.50324 161.43516 39181 ft 529 kts 57°
2026-05-07 12:42 41.53370 161.52444 39181 ft 529 kts 57°
2026-05-07 12:43 41.56408 161.61377 39178 ft 528 kts 57°
2026-05-07 12:43 41.59440 161.70321 39179 ft 528 kts 57°
2026-05-07 12:44 41.62444 161.79212 39171 ft 528 kts 57°
2026-05-07 12:44 41.65458 161.88160 39180 ft 528 kts 57°
2026-05-07 12:45 41.68466 161.97122 39176 ft 528 kts 57°
2026-05-07 12:45 41.71468 162.06091 39178 ft 528 kts 57°
2026-05-07 12:46 41.74440 162.15003 39177 ft 528 kts 57°
2026-05-07 12:46 41.77423 162.23975 39179 ft 527 kts 57°
2026-05-07 12:47 41.80397 162.32951 39177 ft 527 kts 57°
2026-05-07 12:47 41.83364 162.41934 39179 ft 527 kts 57°
2026-05-07 12:48 41.86305 162.50868 39176 ft 527 kts 57°
2026-05-07 12:48 41.89254 162.59858 39178 ft 526 kts 57°
2026-05-07 12:49 41.92195 162.68854 39175 ft 526 kts 57°
2026-05-07 12:49 41.95109 162.77789 39180 ft 526 kts 57°
2026-05-07 12:50 41.98037 162.86799 39178 ft 526 kts 57°
2026-05-07 12:50 42.00956 162.95811 39177 ft 526 kts 57°
2026-05-07 12:51 42.03867 163.04830 39174 ft 525 kts 57°
2026-05-07 12:51 42.06749 163.13791 39175 ft 525 kts 57°
2026-05-07 12:52 42.09642 163.22819 39176 ft 525 kts 58°
2026-05-07 12:52 42.12529 163.31855 39165 ft 525 kts 58°
2026-05-07 12:53 42.15410 163.40903 39166 ft 525 kts 58°
2026-05-07 12:53 42.18282 163.49957 39172 ft 525 kts 58°
2026-05-07 12:54 42.20665 163.57488 39171 ft 525 kts 58°
2026-05-07 12:54 42.23988 163.68028 39176 ft 525 kts 58°
2026-05-07 12:55 42.26838 163.77101 39173 ft 525 kts 58°
2026-05-07 12:55 42.29684 163.86190 39176 ft 525 kts 58°
2026-05-07 12:56 42.32502 163.95225 39177 ft 525 kts 58°
2026-05-07 12:56 42.35333 164.04328 39174 ft 525 kts 58°
2026-05-07 12:57 42.38153 164.13429 39172 ft 525 kts 58°
2026-05-07 12:57 42.40969 164.22549 39174 ft 525 kts 58°
2026-05-07 12:58 42.43774 164.31665 39172 ft 524 kts 58°
2026-05-07 12:58 42.46096 164.39236 39174 ft 524 kts 59°
2026-05-07 12:59 42.49333 164.49826 39171 ft 524 kts 59°
2026-05-07 12:59 42.52111 164.58946 39178 ft 523 kts 59°
2026-05-07 13:00 42.54880 164.68072 39164 ft 523 kts 59°
2026-05-07 13:00 42.57619 164.77129 39172 ft 522 kts 59°
2026-05-07 13:01 42.60369 164.86255 39172 ft 522 kts 59°
2026-05-07 13:01 42.63108 164.95376 39170 ft 522 kts 59°
2026-05-07 13:02 42.65380 165.02966 39171 ft 522 kts 59°
2026-05-07 13:02 42.68546 165.13581 39171 ft 522 kts 59°
2026-05-07 13:03 42.71265 165.22731 39174 ft 521 kts 59°
2026-05-07 13:03 42.73515 165.30328 39167 ft 521 kts 59°
2026-05-07 13:04 42.76218 165.39482 39169 ft 522 kts 59°
2026-05-07 13:04 42.78914 165.48650 39169 ft 522 kts 60°
2026-05-07 13:05 42.82040 165.59317 39172 ft 522 kts 60°
2026-05-07 13:05 42.84268 165.66947 39169 ft 522 kts 60°
2026-05-07 13:06 42.86944 165.76145 39170 ft 522 kts 60°
2026-05-07 13:06 42.90047 165.86849 39167 ft 522 kts 60°
2026-05-07 13:07 42.92708 165.96067 39166 ft 522 kts 60°
2026-05-07 13:07 42.94915 166.03734 39167 ft 522 kts 60°
2026-05-07 13:08 42.97565 166.12975 39166 ft 523 kts 60°
2026-05-07 13:08 43.00634 166.23719 39166 ft 523 kts 60°
2026-05-07 13:09 43.02843 166.31480 39168 ft 523 kts 60°
2026-05-07 13:09 43.05455 166.40688 39157 ft 523 kts 61°
2026-05-07 13:10 43.08076 166.49965 39163 ft 523 kts 61°
2026-05-07 13:10 43.10690 166.59246 39155 ft 523 kts 61°
2026-05-07 13:11 43.13298 166.68543 39162 ft 523 kts 61°
2026-05-07 13:11 43.15880 166.77786 39159 ft 523 kts 61°
2026-05-07 13:12 43.18475 166.87107 39161 ft 523 kts 61°
2026-05-07 13:12 43.21063 166.96435 39160 ft 524 kts 61°
2026-05-07 13:13 43.23643 167.05771 39156 ft 524 kts 61°
2026-05-07 13:13 43.26215 167.15117 39155 ft 524 kts 62°
2026-05-07 13:14 43.28762 167.24402 39158 ft 524 kts 62°
2026-05-07 13:14 43.31321 167.33773 39157 ft 524 kts 62°
2026-05-07 13:15 43.33872 167.43146 39157 ft 524 kts 62°
2026-05-07 13:15 43.36418 167.52535 39152 ft 524 kts 62°
2026-05-07 13:16 43.38939 167.61869 39153 ft 524 kts 62°
2026-05-07 13:16 43.41468 167.71269 39155 ft 524 kts 62°
2026-05-07 13:17 43.43989 167.80678 39152 ft 525 kts 62°
2026-05-07 13:17 43.46506 167.90109 39148 ft 525 kts 62°
2026-05-07 13:18 43.48998 167.99481 39149 ft 525 kts 62°
2026-05-07 13:18 43.51497 168.08919 39136 ft 525 kts 62°
2026-05-07 13:19 43.53990 168.18368 39135 ft 525 kts 62°
2026-05-07 13:19 43.56478 168.27836 39144 ft 525 kts 62°
2026-05-07 13:20 43.58939 168.37241 39146 ft 525 kts 62°
2026-05-07 13:20 43.61410 168.46720 39145 ft 525 kts 63°
2026-05-07 13:21 43.63873 168.56206 39143 ft 525 kts 63°
2026-05-07 13:21 43.66328 168.65700 39144 ft 525 kts 63°
2026-05-07 13:22 43.68759 168.75135 39137 ft 525 kts 63°
2026-05-07 13:22 43.71197 168.84639 39142 ft 525 kts 63°
2026-05-07 13:23 43.73628 168.94155 39136 ft 525 kts 63°
2026-05-07 13:23 43.76051 169.03675 39135 ft 525 kts 63°
2026-05-07 13:24 43.78465 169.13203 39130 ft 525 kts 63°
2026-05-07 13:24 43.80870 169.22730 39132 ft 525 kts 63°
2026-05-07 13:25 43.83253 169.32208 39131 ft 525 kts 63°
2026-05-07 13:25 43.85643 169.41755 39128 ft 524 kts 63°
2026-05-07 13:26 43.88025 169.51311 39130 ft 524 kts 63°
2026-05-07 13:26 43.90398 169.60871 39127 ft 524 kts 63°
2026-05-07 13:27 43.92750 169.70381 39125 ft 525 kts 64°
2026-05-07 13:27 43.95106 169.79950 39125 ft 525 kts 64°
2026-05-07 13:28 43.97457 169.89540 39123 ft 525 kts 64°
2026-05-07 13:28 43.99749 169.99163 39119 ft 529 kts 68°
2026-05-07 13:29 44.01377 170.09185 39123 ft 533 kts 71°
2026-05-07 13:29 44.02827 170.19204 39123 ft 533 kts 72°
2026-05-07 13:30 44.04260 170.29330 39120 ft 533 kts 72°
2026-05-07 13:30 44.05693 170.39447 39120 ft 533 kts 72°
2026-05-07 13:31 44.07125 170.49559 39124 ft 533 kts 72°
2026-05-07 13:31 44.08542 170.59616 39112 ft 533 kts 72°
2026-05-07 13:32 44.09958 170.69737 39114 ft 533 kts 72°
2026-05-07 13:32 44.11366 170.79866 39116 ft 533 kts 72°
2026-05-07 13:33 44.12763 170.89998 39116 ft 533 kts 73°
2026-05-07 13:33 44.14152 171.00130 39114 ft 533 kts 73°
2026-05-07 13:34 44.16210 171.15285 39112 ft 533 kts 73°
2026-05-07 13:35 44.17576 171.25427 39111 ft 533 kts 73°
2026-05-07 13:35 44.18934 171.35580 39108 ft 533 kts 73°
2026-05-07 13:36 44.20273 171.45671 39108 ft 533 kts 73°
2026-05-07 13:36 44.21612 171.55827 39105 ft 533 kts 73°
2026-05-07 13:37 44.22942 171.65987 39107 ft 533 kts 73°
2026-05-07 13:37 44.24262 171.76148 39107 ft 533 kts 73°
2026-05-07 13:38 44.25574 171.86318 39101 ft 533 kts 74°
2026-05-07 13:38 44.26867 171.96418 39101 ft 533 kts 74°
2026-05-07 13:39 44.28161 172.06595 39101 ft 533 kts 74°
2026-05-07 13:39 44.29445 172.16772 39103 ft 532 kts 74°
2026-05-07 13:40 44.30720 172.26957 39103 ft 532 kts 74°
2026-05-07 13:40 44.31977 172.37067 39099 ft 532 kts 74°
2026-05-07 13:41 44.33234 172.47264 39089 ft 532 kts 74°
2026-05-07 13:41 44.34481 172.57447 39094 ft 532 kts 75°
2026-05-07 13:42 44.35719 172.67645 39097 ft 532 kts 75°
2026-05-07 13:42 44.36940 172.77779 39099 ft 532 kts 75°
2026-05-07 13:43 44.38161 172.87988 39096 ft 533 kts 75°
2026-05-07 13:43 44.39372 172.98192 39095 ft 533 kts 75°
2026-05-07 13:44 44.40576 173.08418 39095 ft 533 kts 75°
2026-05-07 13:44 44.41763 173.18577 39092 ft 533 kts 75°
2026-05-07 13:45 44.42948 173.28803 39095 ft 533 kts 75°
2026-05-07 13:45 44.44125 173.39046 39097 ft 533 kts 75°
2026-05-07 13:46 44.45293 173.49291 39096 ft 534 kts 75°
2026-05-07 13:46 44.46453 173.59559 39092 ft 534 kts 75°
2026-05-07 13:47 44.47596 173.69758 39088 ft 534 kts 75°
2026-05-07 13:47 44.48739 173.80047 39087 ft 535 kts 75°
2026-05-07 13:48 44.49874 173.90349 39089 ft 535 kts 76°
2026-05-07 13:48 44.51000 174.00658 39085 ft 536 kts 76°
2026-05-07 13:49 44.52112 174.10924 39086 ft 536 kts 76°
2026-05-07 13:49 44.53222 174.21263 39086 ft 537 kts 76°
2026-05-07 13:50 44.54324 174.31614 39081 ft 537 kts 76°
2026-05-07 13:50 44.55418 174.41980 39082 ft 538 kts 76°
2026-05-07 13:51 44.56496 174.52294 39078 ft 538 kts 76°
2026-05-07 13:51 44.57572 174.62685 39080 ft 539 kts 76°
2026-05-07 13:52 44.58641 174.73090 39077 ft 539 kts 76°
2026-05-07 13:52 44.59700 174.83508 39074 ft 540 kts 76°
2026-05-07 13:53 44.60745 174.93870 39078 ft 540 kts 77°
2026-05-07 13:53 44.61787 175.04311 39072 ft 541 kts 77°
2026-05-07 13:54 44.62821 175.14769 39073 ft 541 kts 77°
2026-05-07 13:54 44.63847 175.25240 39073 ft 542 kts 77°
2026-05-07 13:55 44.64864 175.35728 39073 ft 542 kts 77°
2026-05-07 13:55 44.65865 175.46158 39066 ft 543 kts 77°
2026-05-07 13:56 44.66865 175.56670 39057 ft 543 kts 77°
2026-05-07 13:56 44.67856 175.67197 39065 ft 544 kts 77°
2026-05-07 13:57 44.68838 175.77734 39073 ft 544 kts 77°
2026-05-07 13:57 44.69812 175.88285 39069 ft 545 kts 77°
2026-05-07 13:58 44.70769 175.98774 39061 ft 545 kts 78°
2026-05-07 13:58 44.71726 176.09365 39060 ft 546 kts 78°
2026-05-07 13:59 44.72674 176.19967 39060 ft 547 kts 78°
2026-05-07 13:59 44.73612 176.30579 39061 ft 548 kts 78°
2026-05-07 14:00 44.74536 176.41145 39059 ft 548 kts 78°
2026-05-07 14:00 44.75458 176.51793 39057 ft 549 kts 78°
2026-05-07 14:01 44.76370 176.62453 39054 ft 549 kts 78°
2026-05-07 14:01 44.77273 176.73127 39055 ft 550 kts 78°
2026-05-07 14:02 44.78162 176.83748 39051 ft 550 kts 78°
2026-05-07 14:02 44.79046 176.94450 39049 ft 551 kts 78°
2026-05-07 14:03 44.79922 177.05163 39046 ft 551 kts 79°
2026-05-07 14:03 44.80788 177.15886 39043 ft 551 kts 79°
2026-05-07 14:04 44.81644 177.26610 39044 ft 552 kts 79°
2026-05-07 14:04 44.82486 177.37286 39043 ft 552 kts 79°
2026-05-07 14:05 44.83324 177.48038 39047 ft 553 kts 79°
2026-05-07 14:05 44.84153 177.58812 39044 ft 553 kts 79°
2026-05-07 14:06 44.84972 177.69587 39042 ft 553 kts 79°
2026-05-07 14:06 44.85780 177.80363 39044 ft 553 kts 79°
2026-05-07 14:07 44.86572 177.91065 39046 ft 553 kts 79°
2026-05-07 14:07 44.87360 178.01848 39038 ft 553 kts 79°
2026-05-07 14:08 44.88139 178.12642 39038 ft 553 kts 79°
2026-05-07 14:08 44.88908 178.23441 39031 ft 553 kts 79°
2026-05-07 14:09 44.89660 178.34160 39035 ft 553 kts 79°
2026-05-07 14:09 44.90407 178.44938 39034 ft 552 kts 80°
2026-05-07 14:10 44.91144 178.55727 39034 ft 552 kts 80°
2026-05-07 14:10 44.91870 178.66502 39034 ft 552 kts 80°
2026-05-07 14:11 44.92585 178.77272 39034 ft 551 kts 80°
2026-05-07 14:11 44.93284 178.87962 39032 ft 551 kts 80°
2026-05-07 14:12 44.93978 178.98714 39027 ft 550 kts 80°
2026-05-07 14:12 44.94660 179.09450 39029 ft 549 kts 80°
2026-05-07 14:13 44.95332 179.20198 39025 ft 549 kts 81°
2026-05-07 14:13 44.95993 179.30926 39026 ft 548 kts 81°
2026-05-07 14:14 44.96639 179.41571 39020 ft 548 kts 81°
2026-05-07 14:14 44.97281 179.52304 39021 ft 548 kts 81°
2026-05-07 14:15 44.97912 179.63019 39020 ft 548 kts 81°
2026-05-07 14:15 44.98528 179.73667 39018 ft 548 kts 81°
2026-05-07 14:16 44.99139 179.84389 39019 ft 548 kts 81°
2026-05-07 14:16 44.99744 179.95112 39018 ft 547 kts 81°
2026-05-07 14:17 45.01396 -179.94551 39017 ft 536 kts 66°
2026-05-07 14:17 45.03810 -179.84588 39017 ft 535 kts 65°
2026-05-07 14:18 45.06307 -179.74746 39010 ft 536 kts 65°
2026-05-07 14:18 45.08810 -179.64813 39010 ft 536 kts 65°
2026-05-07 14:19 45.11285 -179.54856 39003 ft 536 kts 65°
2026-05-07 14:19 45.13742 -179.44888 39002 ft 536 kts 65°
2026-05-07 14:20 45.16178 -179.34964 39007 ft 537 kts 65°
2026-05-07 14:20 45.18618 -179.24979 38998 ft 537 kts 66°
2026-05-07 14:21 45.21054 -179.14971 38999 ft 537 kts 66°
2026-05-07 14:21 45.23480 -179.04962 38995 ft 537 kts 66°
2026-05-07 14:22 45.25881 -178.95011 38998 ft 537 kts 66°
2026-05-07 14:22 45.28293 -178.84967 38996 ft 537 kts 66°
2026-05-07 14:23 45.30693 -178.74931 38992 ft 537 kts 66°
2026-05-07 14:23 45.33084 -178.64886 38990 ft 537 kts 66°
2026-05-07 14:24 45.35466 -178.54833 38989 ft 537 kts 66°
2026-05-07 14:24 45.37824 -178.44837 38985 ft 537 kts 66°
2026-05-07 14:25 45.40186 -178.34775 38985 ft 536 kts 67°
2026-05-07 14:25 45.42541 -178.24700 38977 ft 536 kts 67°
2026-05-07 14:26 45.44886 -178.14622 38972 ft 536 kts 67°
2026-05-07 14:26 45.47208 -178.04595 38981 ft 536 kts 67°
2026-05-07 14:27 45.49534 -177.94505 38975 ft 536 kts 67°
2026-05-07 14:27 45.51849 -177.84417 38975 ft 536 kts 67°
2026-05-07 14:28 45.54159 -177.74304 38970 ft 536 kts 68°
2026-05-07 14:28 45.56457 -177.64192 38967 ft 535 kts 68°
2026-05-07 14:29 45.58730 -177.54146 38963 ft 535 kts 68°
2026-05-07 14:29 45.61006 -177.44038 38962 ft 535 kts 68°
2026-05-07 14:30 45.63273 -177.33922 38960 ft 534 kts 68°
2026-05-07 14:30 45.65530 -177.23803 38956 ft 534 kts 68°
2026-05-07 14:31 45.67761 -177.13755 38952 ft 534 kts 68°
2026-05-07 14:31 45.69998 -177.03633 38953 ft 534 kts 68°
2026-05-07 14:32 45.72223 -176.93511 38948 ft 533 kts 69°
2026-05-07 14:32 45.74439 -176.83384 38945 ft 533 kts 69°
2026-05-07 14:33 45.76631 -176.73318 38942 ft 533 kts 69°
2026-05-07 14:33 45.78829 -176.63180 38938 ft 533 kts 69°
2026-05-07 14:34 45.81017 -176.53034 38935 ft 533 kts 69°
2026-05-07 14:34 45.83194 -176.42890 38932 ft 532 kts 69°
2026-05-07 14:35 45.85347 -176.32810 38926 ft 532 kts 69°
2026-05-07 14:35 45.87502 -176.22666 38924 ft 532 kts 70°
2026-05-07 14:36 45.89649 -176.12515 38919 ft 531 kts 70°
2026-05-07 14:36 45.91786 -176.02360 38920 ft 531 kts 70°
2026-05-07 14:37 45.93896 -175.92279 38913 ft 530 kts 70°
2026-05-07 14:37 45.97062 -175.77065 38906 ft 530 kts 70°
2026-05-07 14:38 45.99161 -175.66913 38902 ft 530 kts 70°
2026-05-07 14:38 46.01251 -175.56756 38898 ft 529 kts 70°
2026-05-07 14:39 46.03316 -175.46666 38898 ft 529 kts 70°
2026-05-07 14:39 46.05383 -175.36515 38892 ft 529 kts 71°
2026-05-07 14:40 46.07443 -175.26351 38891 ft 528 kts 71°
2026-05-07 14:40 46.09491 -175.16191 38882 ft 528 kts 71°
2026-05-07 14:41 46.11513 -175.06107 38881 ft 528 kts 71°
2026-05-07 14:41 46.13542 -174.95940 38885 ft 527 kts 71°
2026-05-07 14:42 46.15559 -174.85777 38881 ft 527 kts 71°
2026-05-07 14:42 46.17563 -174.75628 38870 ft 526 kts 71°
2026-05-07 14:43 46.19559 -174.65467 38866 ft 526 kts 71°
2026-05-07 14:43 46.21532 -174.55372 38874 ft 526 kts 72°
2026-05-07 14:44 46.23506 -174.45211 38863 ft 525 kts 72°
2026-05-07 14:44 46.25470 -174.35056 38863 ft 525 kts 72°
2026-05-07 14:45 46.27421 -174.24911 38861 ft 524 kts 72°
2026-05-07 14:45 46.29352 -174.14818 38857 ft 524 kts 72°
2026-05-07 14:46 46.31282 -174.04675 38857 ft 523 kts 72°
2026-05-07 14:46 46.33205 -173.94518 38852 ft 523 kts 72°
2026-05-07 14:47 46.35116 -173.84365 38849 ft 523 kts 72°
2026-05-07 14:47 46.37002 -173.74292 38849 ft 522 kts 73°
2026-05-07 14:48 46.38894 -173.64135 38844 ft 522 kts 73°
2026-05-07 14:48 46.40774 -173.53990 38842 ft 521 kts 73°
2026-05-07 14:49 46.42643 -173.43842 38844 ft 521 kts 73°
2026-05-07 14:49 46.44490 -173.33758 38838 ft 521 kts 73°
2026-05-07 14:50 46.46338 -173.23616 38836 ft 520 kts 73°
2026-05-07 14:50 46.48178 -173.13463 38832 ft 520 kts 74°
2026-05-07 14:51 46.50007 -173.03316 38835 ft 520 kts 74°
2026-05-07 14:51 46.51825 -172.93165 38830 ft 520 kts 74°
2026-05-07 14:52 46.53623 -172.83075 38831 ft 520 kts 74°
2026-05-07 14:52 46.55425 -172.72907 38826 ft 520 kts 74°
2026-05-07 14:53 46.57217 -172.62735 38824 ft 520 kts 75°
2026-05-07 14:53 46.59001 -172.52553 38819 ft 520 kts 75°
2026-05-07 14:54 46.60774 -172.42370 38816 ft 520 kts 75°
2026-05-07 14:54 46.62527 -172.32249 38815 ft 519 kts 75°
2026-05-07 14:55 46.64284 -172.22048 38813 ft 519 kts 75°
2026-05-07 14:55 46.66028 -172.11857 38811 ft 519 kts 75°
2026-05-07 14:56 46.67754 -172.01717 38811 ft 519 kts 75°
2026-05-07 14:56 46.69481 -171.91511 38809 ft 519 kts 75°
2026-05-07 14:57 46.71197 -171.81306 38807 ft 519 kts 75°
2026-05-07 14:57 46.72906 -171.71083 38803 ft 519 kts 75°
2026-05-07 14:58 46.74603 -171.60867 38802 ft 518 kts 76°
2026-05-07 14:58 46.76280 -171.50721 38803 ft 518 kts 76°
2026-05-07 14:59 46.77958 -171.40501 38799 ft 518 kts 76°
2026-05-07 14:59 46.79627 -171.30280 38796 ft 518 kts 76°
2026-05-07 15:00 46.81286 -171.20059 38794 ft 517 kts 76°
2026-05-07 15:00 46.82923 -171.09904 38791 ft 517 kts 76°
2026-05-07 15:01 46.84562 -170.99677 38788 ft 517 kts 76°
2026-05-07 15:01 46.86192 -170.89445 38787 ft 517 kts 76°
2026-05-07 15:02 46.87809 -170.79226 38790 ft 516 kts 76°
2026-05-07 15:02 46.89406 -170.69075 38785 ft 515 kts 77°
2026-05-07 15:03 46.91001 -170.58873 38784 ft 514 kts 77°
2026-05-07 15:03 46.92586 -170.48673 38781 ft 514 kts 77°
2026-05-07 15:04 46.94159 -170.38481 38775 ft 513 kts 77°
2026-05-07 15:04 46.95724 -170.28277 38776 ft 513 kts 77°
2026-05-07 15:05 46.97268 -170.18152 38778 ft 513 kts 77°
2026-05-07 15:05 46.98810 -170.07972 38774 ft 512 kts 77°
2026-05-07 15:06 47.00866 -169.98023 38775 ft 510 kts 64°
2026-05-07 15:06 47.04033 -169.88723 38773 ft 510 kts 62°
2026-05-07 15:07 47.07345 -169.79605 38766 ft 509 kts 61°
2026-05-07 15:07 47.10682 -169.70443 38764 ft 509 kts 62°
2026-05-07 15:08 47.13991 -169.61263 38758 ft 508 kts 62°
2026-05-07 15:08 47.17275 -169.52080 38756 ft 508 kts 62°
2026-05-07 15:09 47.20553 -169.42876 38755 ft 508 kts 62°
2026-05-07 15:09 47.23795 -169.33743 38752 ft 507 kts 62°
2026-05-07 15:10 47.27050 -169.24542 38748 ft 506 kts 63°
2026-05-07 15:10 47.30293 -169.15344 38749 ft 505 kts 63°
2026-05-07 15:11 47.33523 -169.06151 38743 ft 505 kts 63°
2026-05-07 15:11 47.36721 -168.97017 38739 ft 505 kts 63°
2026-05-07 15:12 47.39931 -168.87818 38739 ft 504 kts 63°
2026-05-07 15:12 47.43134 -168.78605 38737 ft 504 kts 63°
2026-05-07 15:13 47.46326 -168.69393 38735 ft 504 kts 63°
2026-05-07 15:13 47.49489 -168.60231 38728 ft 503 kts 63°
2026-05-07 15:14 47.52660 -168.51015 38728 ft 503 kts 64°
2026-05-07 15:14 47.55828 -168.41772 38728 ft 503 kts 64°
2026-05-07 15:15 47.58986 -168.32528 38729 ft 503 kts 64°
2026-05-07 15:15 47.62118 -168.23326 38724 ft 503 kts 64°
2026-05-07 15:16 47.65264 -168.14054 38722 ft 503 kts 64°
2026-05-07 15:16 47.68401 -168.04773 38721 ft 503 kts 64°
2026-05-07 15:17 47.71531 -167.95477 38721 ft 503 kts 64°
2026-05-07 15:17 47.74652 -167.86174 38718 ft 503 kts 64°
2026-05-07 15:18 47.77746 -167.76922 38715 ft 503 kts 64°
2026-05-07 15:18 47.80854 -167.67594 38717 ft 503 kts 65°
2026-05-07 15:19 47.83951 -167.58261 38714 ft 503 kts 65°
2026-05-07 15:19 47.87041 -167.48916 38712 ft 503 kts 65°
2026-05-07 15:20 47.90099 -167.39633 38711 ft 503 kts 65°
2026-05-07 15:20 47.93170 -167.30276 38709 ft 502 kts 65°
2026-05-07 15:21 47.96230 -167.20923 38705 ft 502 kts 65°
2026-05-07 15:21 47.99283 -167.11557 38702 ft 502 kts 65°
2026-05-07 15:22 48.02306 -167.02244 38704 ft 502 kts 65°
2026-05-07 15:22 48.05342 -166.92862 38697 ft 501 kts 65°
2026-05-07 15:23 48.08368 -166.83477 38695 ft 501 kts 65°
2026-05-07 15:23 48.11385 -166.74082 38693 ft 500 kts 65°
2026-05-07 15:24 48.14386 -166.64701 38691 ft 500 kts 65°
2026-05-07 15:24 48.17361 -166.55370 38691 ft 500 kts 65°
2026-05-07 15:25 48.20347 -166.45967 38689 ft 499 kts 65°
2026-05-07 15:25 48.23323 -166.36561 38688 ft 499 kts 65°
2026-05-07 15:26 48.26290 -166.27151 38685 ft 499 kts 66°
2026-05-07 15:26 48.29228 -166.17796 38685 ft 498 kts 66°
2026-05-07 15:27 48.32174 -166.08380 38683 ft 498 kts 66°
2026-05-07 15:27 48.35113 -165.98949 38685 ft 498 kts 66°
2026-05-07 15:28 48.38041 -165.89520 38684 ft 498 kts 66°
2026-05-07 15:28 48.40963 -165.80074 38684 ft 498 kts 66°
2026-05-07 15:29 48.43858 -165.70678 38684 ft 498 kts 66°
2026-05-07 15:29 48.46762 -165.61220 38682 ft 498 kts 66°
2026-05-07 15:30 48.49662 -165.51736 38685 ft 498 kts 66°
2026-05-07 15:30 48.52533 -165.42314 38687 ft 498 kts 66°
2026-05-07 15:31 48.55415 -165.32821 38688 ft 497 kts 67°
2026-05-07 15:31 48.58285 -165.23325 38690 ft 497 kts 67°
2026-05-07 15:32 48.61144 -165.13834 38707 ft 496 kts 68°
2026-05-07 15:32 48.63994 -165.04334 38706 ft 496 kts 68°
2026-05-07 15:33 48.66816 -164.94891 38705 ft 496 kts 68°
2026-05-07 15:33 48.69648 -164.85376 38710 ft 496 kts 68°
2026-05-07 15:34 48.72470 -164.75862 38712 ft 496 kts 68°
2026-05-07 15:34 48.75285 -164.66335 38720 ft 495 kts 68°
2026-05-07 15:35 48.78091 -164.56803 38726 ft 496 kts 68°
2026-05-07 15:35 48.80870 -164.47312 38729 ft 496 kts 68°
2026-05-07 15:36 48.83661 -164.37742 38734 ft 496 kts 69°
2026-05-07 15:36 48.86445 -164.28174 38735 ft 496 kts 69°
2026-05-07 15:37 48.88753 -164.20205 38741 ft 496 kts 69°
2026-05-07 15:37 48.91973 -164.09053 38744 ft 496 kts 69°
2026-05-07 15:38 48.94734 -163.99444 38750 ft 496 kts 69°
2026-05-07 15:38 48.97021 -163.91453 38759 ft 496 kts 69°
2026-05-07 15:39 48.99768 -163.81824 38755 ft 496 kts 69°
2026-05-07 15:39 49.02947 -163.70630 38762 ft 495 kts 69°
2026-05-07 15:40 49.05673 -163.60983 38765 ft 495 kts 69°
2026-05-07 15:40 49.07931 -163.52970 38767 ft 495 kts 69°
2026-05-07 15:41 49.10643 -163.43309 38775 ft 495 kts 69°
2026-05-07 15:41 49.13785 -163.32065 38777 ft 495 kts 69°
2026-05-07 15:42 49.16480 -163.22379 38782 ft 495 kts 69°
2026-05-07 15:42 49.19166 -163.12680 38790 ft 495 kts 69°
2026-05-07 15:43 49.21394 -163.04610 38787 ft 496 kts 69°
2026-05-07 15:43 49.24066 -162.94890 38796 ft 496 kts 69°
2026-05-07 15:44 49.26735 -162.85148 38796 ft 496 kts 69°
2026-05-07 15:44 49.29374 -162.75472 38797 ft 496 kts 70°
2026-05-07 15:45 49.32026 -162.65706 38805 ft 496 kts 70°
2026-05-07 15:45 49.34672 -162.55930 38802 ft 497 kts 70°
2026-05-07 15:46 49.38610 -162.41286 38810 ft 497 kts 70°
2026-05-07 15:47 49.41237 -162.31474 38817 ft 498 kts 70°
2026-05-07 15:47 49.43861 -162.21627 38819 ft 498 kts 70°
2026-05-07 15:48 49.46476 -162.11773 38821 ft 498 kts 70°
2026-05-07 15:48 49.49086 -162.01896 38823 ft 499 kts 70°
2026-05-07 15:49 49.51671 -161.92070 38825 ft 499 kts 70°
2026-05-07 15:49 49.54267 -161.82160 38827 ft 499 kts 70°
2026-05-07 15:50 49.56855 -161.72237 38830 ft 499 kts 70°
2026-05-07 15:50 49.59438 -161.62288 38835 ft 500 kts 70°
2026-05-07 15:51 49.62012 -161.52339 38835 ft 500 kts 70°
2026-05-07 15:51 49.64562 -161.42433 38839 ft 500 kts 70°
2026-05-07 15:52 49.67120 -161.32451 38839 ft 500 kts 70°
2026-05-07 15:52 49.69671 -161.22452 38840 ft 500 kts 70°
2026-05-07 15:53 49.72215 -161.12442 38843 ft 501 kts 70°
2026-05-07 15:53 49.74733 -161.02486 38848 ft 501 kts 71°
2026-05-07 15:54 49.77263 -160.92440 38845 ft 501 kts 71°
2026-05-07 15:54 49.79780 -160.82397 38850 ft 501 kts 71°
2026-05-07 15:55 49.82293 -160.72329 38851 ft 501 kts 71°
2026-05-07 15:55 49.84780 -160.62320 38853 ft 501 kts 71°
2026-05-07 15:56 49.87274 -160.52234 38853 ft 501 kts 71°
2026-05-07 15:56 49.89759 -160.42141 38856 ft 501 kts 71°
2026-05-07 15:57 49.92238 -160.32030 38857 ft 501 kts 71°
2026-05-07 15:57 49.94703 -160.21921 38855 ft 501 kts 71°
2026-05-07 15:58 49.97147 -160.11859 38859 ft 501 kts 71°
2026-05-07 15:58 49.99598 -160.01719 38858 ft 501 kts 71°
2026-05-07 15:59 50.02085 -159.91589 38860 ft 501 kts 70°
2026-05-07 15:59 50.04643 -159.81508 38860 ft 501 kts 70°
2026-05-07 16:00 50.07176 -159.71478 38865 ft 501 kts 70°
2026-05-07 16:00 50.09704 -159.61361 38865 ft 501 kts 70°
2026-05-07 16:01 50.12208 -159.51259 38864 ft 501 kts 70°
2026-05-07 16:01 50.14712 -159.41114 38869 ft 501 kts 71°
2026-05-07 16:02 50.17188 -159.31036 38867 ft 501 kts 71°
2026-05-07 16:02 50.19675 -159.20870 38865 ft 501 kts 71°
2026-05-07 16:03 50.22152 -159.10701 38866 ft 501 kts 71°
2026-05-07 16:03 50.24622 -159.00510 38867 ft 501 kts 71°
2026-05-07 16:04 50.27064 -158.90387 38868 ft 501 kts 71°
2026-05-07 16:04 50.29516 -158.80174 38868 ft 501 kts 71°
2026-05-07 16:05 50.31956 -158.69969 38874 ft 501 kts 71°
2026-05-07 16:05 50.34391 -158.59736 38879 ft 501 kts 71°
2026-05-07 16:06 50.36800 -158.49560 38872 ft 502 kts 71°
2026-05-07 16:06 50.39215 -158.39313 38868 ft 502 kts 71°
2026-05-07 16:07 50.41625 -158.29038 38871 ft 502 kts 71°
2026-05-07 16:07 50.44027 -158.18750 38869 ft 502 kts 71°
2026-05-07 16:08 50.46421 -158.08445 38869 ft 503 kts 71°
2026-05-07 16:08 50.48790 -157.98197 38872 ft 503 kts 71°
2026-05-07 16:09 50.51171 -157.87852 38870 ft 504 kts 71°
2026-05-07 16:09 50.53546 -157.77476 38865 ft 505 kts 71°
2026-05-07 16:10 50.55913 -157.67088 38875 ft 505 kts 71°
2026-05-07 16:10 50.58252 -157.56766 38870 ft 505 kts 71°
2026-05-07 16:11 50.60604 -157.46347 38872 ft 505 kts 72°
2026-05-07 16:11 50.62947 -157.35913 38873 ft 505 kts 72°
2026-05-07 16:12 50.65283 -157.25456 38868 ft 506 kts 72°
2026-05-07 16:12 50.67594 -157.15059 38869 ft 506 kts 72°
2026-05-07 16:13 50.69912 -157.04580 38867 ft 506 kts 72°
2026-05-07 16:13 50.72221 -156.94089 38870 ft 506 kts 72°
2026-05-07 16:14 50.74521 -156.83581 38872 ft 506 kts 72°
2026-05-07 16:14 50.76811 -156.73071 38871 ft 506 kts 72°
2026-05-07 16:15 50.79078 -156.62611 38871 ft 506 kts 72°
2026-05-07 16:15 50.81348 -156.52077 38870 ft 507 kts 72°
2026-05-07 16:16 50.83612 -156.41525 38869 ft 507 kts 72°
2026-05-07 16:16 50.85869 -156.30951 38868 ft 507 kts 72°
2026-05-07 16:17 50.88097 -156.20453 38869 ft 506 kts 72°
2026-05-07 16:17 50.90332 -156.09874 39013 ft 507 kts 72°
2026-05-07 16:17 50.91447 -156.04571 39219 ft 507 kts 72°
2026-05-07 16:18 50.92559 -155.99265 39408 ft 507 kts 72°
2026-05-07 16:18 50.93668 -155.93963 39580 ft 507 kts 72°
2026-05-07 16:18 50.94776 -155.88655 39746 ft 507 kts 72°
2026-05-07 16:18 50.95880 -155.83350 39922 ft 507 kts 72°
2026-05-07 16:19 50.96967 -155.78113 40074 ft 507 kts 72°
2026-05-07 16:19 50.98068 -155.72796 40246 ft 507 kts 72°
2026-05-07 16:19 50.99168 -155.67471 40391 ft 508 kts 72°
2026-05-07 16:19 51.00264 -155.62151 40552 ft 508 kts 73°
2026-05-07 16:20 51.01356 -155.56829 40707 ft 508 kts 73°
2026-05-07 16:20 51.02449 -155.51496 40827 ft 508 kts 73°
2026-05-07 16:20 51.03538 -155.46163 40867 ft 509 kts 73°
2026-05-07 16:21 51.05697 -155.35555 40867 ft 508 kts 73°
2026-05-07 16:21 51.07861 -155.24860 40868 ft 508 kts 73°
2026-05-07 16:22 51.10017 -155.14146 40864 ft 508 kts 73°
2026-05-07 16:22 51.12160 -155.03436 40863 ft 508 kts 73°
2026-05-07 16:23 51.14279 -154.92795 40861 ft 508 kts 73°
2026-05-07 16:23 51.16405 -154.82057 40862 ft 508 kts 74°
2026-05-07 16:24 51.18519 -154.71314 40862 ft 508 kts 74°
2026-05-07 16:24 51.20625 -154.60558 40862 ft 508 kts 74°
2026-05-07 16:25 51.22708 -154.49858 40858 ft 509 kts 74°
2026-05-07 16:25 51.24796 -154.39076 40860 ft 508 kts 74°
2026-05-07 16:26 51.26873 -154.28286 40863 ft 509 kts 74°
2026-05-07 16:26 51.28941 -154.17483 40858 ft 509 kts 75°
2026-05-07 16:27 51.30985 -154.06747 40856 ft 509 kts 75°
2026-05-07 16:27 51.33032 -153.95926 40856 ft 509 kts 75°
2026-05-07 16:28 51.35070 -153.85091 40855 ft 509 kts 75°
2026-05-07 16:28 51.37100 -153.74239 40856 ft 509 kts 75°
2026-05-07 16:29 51.39097 -153.63503 40854 ft 509 kts 75°
2026-05-07 16:29 51.41093 -153.52709 40851 ft 509 kts 75°
2026-05-07 16:30 51.43087 -153.41859 40855 ft 509 kts 75°
2026-05-07 16:30 51.45076 -153.30978 40847 ft 509 kts 76°
2026-05-07 16:31 51.47053 -153.20094 40851 ft 509 kts 76°
2026-05-07 16:31 51.49008 -153.09269 40846 ft 508 kts 76°
2026-05-07 16:32 51.50964 -152.98367 40845 ft 508 kts 76°
2026-05-07 16:32 51.52910 -152.87460 40843 ft 508 kts 76°
2026-05-07 16:33 51.54842 -152.76564 40847 ft 508 kts 76°
2026-05-07 16:33 51.56754 -152.65717 40845 ft 508 kts 76°
2026-05-07 16:34 51.58668 -152.54787 40841 ft 508 kts 76°
2026-05-07 16:34 51.60572 -152.43859 40842 ft 507 kts 77°
2026-05-07 16:35 51.62462 -152.32941 40839 ft 507 kts 77°
2026-05-07 16:35 51.64328 -152.22085 40840 ft 507 kts 77°
2026-05-07 16:36 51.66198 -152.11148 40839 ft 507 kts 77°
2026-05-07 16:36 51.68056 -152.00203 40834 ft 507 kts 77°
2026-05-07 16:37 51.69904 -151.89248 40835 ft 506 kts 77°
2026-05-07 16:37 51.71743 -151.78280 40836 ft 506 kts 77°
2026-05-07 16:38 51.73560 -151.67382 40836 ft 506 kts 77°
2026-05-07 16:38 51.75377 -151.56409 40835 ft 506 kts 77°
2026-05-07 16:39 51.77181 -151.45427 40841 ft 507 kts 78°
2026-05-07 16:39 51.78965 -151.34509 40827 ft 506 kts 78°
2026-05-07 16:40 51.80752 -151.23509 40836 ft 506 kts 78°
2026-05-07 16:40 51.82530 -151.12489 40830 ft 506 kts 78°
2026-05-07 16:41 51.84286 -151.01542 40832 ft 506 kts 78°
2026-05-07 16:41 51.86042 -150.90511 40833 ft 506 kts 78°
2026-05-07 16:42 51.87773 -150.79564 40828 ft 506 kts 78°
2026-05-07 16:42 51.89506 -150.68531 40832 ft 506 kts 78°
2026-05-07 16:43 51.91229 -150.57489 40832 ft 506 kts 78°
2026-05-07 16:43 51.92944 -150.46426 40831 ft 506 kts 78°
2026-05-07 16:44 51.94645 -150.35377 40834 ft 506 kts 79°
2026-05-07 16:44 51.96325 -150.24389 40833 ft 505 kts 79°
2026-05-07 16:45 51.98005 -150.13330 40833 ft 505 kts 79°
2026-05-07 16:45 51.99288 -150.02178 40836 ft 500 kts 90°
2026-05-07 16:46 51.98678 -149.91100 40837 ft 492 kts 105°
2026-05-07 16:46 51.97140 -149.80380 40838 ft 491 kts 108°
2026-05-07 16:47 51.95453 -149.69659 40834 ft 491 kts 108°
2026-05-07 16:47 51.93770 -149.58935 40844 ft 491 kts 108°
2026-05-07 16:48 51.92105 -149.48222 40847 ft 490 kts 108°
2026-05-07 16:48 51.90453 -149.37588 40839 ft 490 kts 108°
2026-05-07 16:49 51.88780 -149.26883 40838 ft 490 kts 108°
2026-05-07 16:49 51.87099 -149.16203 40842 ft 490 kts 108°
2026-05-07 16:50 51.85408 -149.05540 40843 ft 489 kts 108°
2026-05-07 16:50 51.83708 -148.94887 40847 ft 489 kts 108°
2026-05-07 16:51 51.82012 -148.84327 40844 ft 489 kts 108°
2026-05-07 16:51 51.80296 -148.73712 40851 ft 488 kts 108°
2026-05-07 16:52 51.78572 -148.63107 40856 ft 488 kts 108°
2026-05-07 16:52 51.76840 -148.52528 40858 ft 487 kts 108°
2026-05-07 16:53 51.75111 -148.42028 40856 ft 487 kts 109°
2026-05-07 16:53 51.73364 -148.31482 40868 ft 486 kts 109°
2026-05-07 16:54 51.71608 -148.20951 40867 ft 486 kts 109°
2026-05-07 16:54 51.69846 -148.10448 40870 ft 485 kts 109°
2026-05-07 16:55 51.68076 -147.99955 40874 ft 484 kts 109°
2026-05-07 16:55 51.66313 -147.89572 40878 ft 484 kts 109°
2026-05-07 16:56 51.64529 -147.79128 40879 ft 483 kts 109°
2026-05-07 16:56 51.61840 -147.63506 40885 ft 482 kts 109°
2026-05-07 16:57 51.60040 -147.53118 40890 ft 482 kts 109°
2026-05-07 16:57 51.58242 -147.42811 40891 ft 481 kts 110°
2026-05-07 16:58 51.56427 -147.32462 40896 ft 481 kts 110°
2026-05-07 16:58 51.54605 -147.22134 40897 ft 480 kts 110°
2026-05-07 16:59 51.52775 -147.11822 40901 ft 480 kts 110°
2026-05-07 16:59 51.50952 -147.01605 40903 ft 480 kts 110°
2026-05-07 17:00 51.49105 -146.91315 40920 ft 479 kts 110°
2026-05-07 17:00 51.47254 -146.81055 40913 ft 479 kts 110°
2026-05-07 17:01 51.45391 -146.70792 40910 ft 479 kts 110°
2026-05-07 17:01 51.43536 -146.60628 40924 ft 478 kts 110°
2026-05-07 17:02 51.41659 -146.50404 40922 ft 478 kts 110°
2026-05-07 17:02 51.39774 -146.40191 40925 ft 478 kts 110°
2026-05-07 17:03 51.37882 -146.29992 40929 ft 478 kts 110°
2026-05-07 17:03 51.35993 -146.19869 40933 ft 477 kts 111°
2026-05-07 17:04 51.34086 -146.09703 40931 ft 477 kts 111°
2026-05-07 17:04 51.32170 -145.99548 40933 ft 477 kts 111°
2026-05-07 17:05 51.30246 -145.89404 40944 ft 477 kts 111°
2026-05-07 17:05 51.28325 -145.79326 40940 ft 477 kts 111°
2026-05-07 17:06 51.26385 -145.69207 40949 ft 477 kts 111°
2026-05-07 17:06 51.24438 -145.59104 40946 ft 476 kts 111°
2026-05-07 17:07 51.22480 -145.49002 40955 ft 476 kts 111°
2026-05-07 17:07 51.20514 -145.38909 40952 ft 476 kts 111°
2026-05-07 17:08 51.18554 -145.28899 40954 ft 476 kts 111°
2026-05-07 17:08 51.16571 -145.18824 40960 ft 476 kts 112°
2026-05-07 17:09 51.14581 -145.08766 40960 ft 476 kts 112°
2026-05-07 17:09 51.12581 -144.98710 40963 ft 476 kts 112°
2026-05-07 17:10 51.10586 -144.88727 40969 ft 476 kts 112°
2026-05-07 17:10 51.08569 -144.78688 40972 ft 476 kts 112°
2026-05-07 17:11 51.06543 -144.68657 40989 ft 476 kts 112°
2026-05-07 17:11 51.04509 -144.58639 40993 ft 476 kts 112°
2026-05-07 17:12 51.02467 -144.48631 40995 ft 476 kts 112°
2026-05-07 17:12 51.00432 -144.38709 40998 ft 476 kts 112°
2026-05-07 17:13 50.98376 -144.28731 41001 ft 475 kts 112°
2026-05-07 17:13 50.96312 -144.18765 41000 ft 475 kts 112°
2026-05-07 17:14 50.94241 -144.08816 40998 ft 475 kts 112°
2026-05-07 17:14 50.92162 -143.98881 41006 ft 475 kts 112°
2026-05-07 17:15 50.90088 -143.89019 41009 ft 475 kts 113°
2026-05-07 17:15 50.87992 -143.79096 41011 ft 475 kts 113°
2026-05-07 17:16 50.85887 -143.69185 41016 ft 475 kts 113°
2026-05-07 17:16 50.83775 -143.59287 41013 ft 475 kts 113°
2026-05-07 17:17 50.81670 -143.49468 41019 ft 475 kts 113°
2026-05-07 17:17 50.79540 -143.39582 41022 ft 475 kts 113°
2026-05-07 17:18 50.77405 -143.29715 41023 ft 474 kts 113°
2026-05-07 17:18 50.75263 -143.19864 41025 ft 474 kts 113°
2026-05-07 17:19 50.73125 -143.10081 41026 ft 474 kts 113°
2026-05-07 17:19 50.70966 -143.00249 41033 ft 474 kts 114°
2026-05-07 17:20 50.68802 -142.90435 41036 ft 474 kts 114°
2026-05-07 17:20 50.66626 -142.80620 41038 ft 474 kts 114°
2026-05-07 17:21 50.64458 -142.70881 41051 ft 474 kts 114°
2026-05-07 17:21 50.62269 -142.61101 41046 ft 474 kts 114°
2026-05-07 17:22 50.60072 -142.51328 41036 ft 473 kts 114°
2026-05-07 17:22 50.57867 -142.41561 41050 ft 473 kts 114°
2026-05-07 17:23 50.55658 -142.31825 41046 ft 473 kts 114°
2026-05-07 17:23 50.53457 -142.22170 41049 ft 472 kts 114°
2026-05-07 17:24 50.51231 -142.12450 41057 ft 472 kts 114°
2026-05-07 17:24 50.48999 -142.02746 41057 ft 472 kts 114°
2026-05-07 17:25 50.46760 -141.93059 41064 ft 472 kts 114°
2026-05-07 17:25 50.44532 -141.83459 41065 ft 472 kts 114°
2026-05-07 17:26 50.42278 -141.73791 41064 ft 472 kts 115°
2026-05-07 17:26 50.40018 -141.64142 41074 ft 472 kts 115°
2026-05-07 17:27 50.37747 -141.54492 41072 ft 472 kts 115°
2026-05-07 17:27 50.35488 -141.44930 41072 ft 472 kts 115°
2026-05-07 17:28 50.33203 -141.35303 41075 ft 471 kts 115°
2026-05-07 17:28 50.30911 -141.25691 41078 ft 471 kts 115°
2026-05-07 17:29 50.28614 -141.16097 41081 ft 471 kts 115°
2026-05-07 17:29 50.26304 -141.06494 41081 ft 472 kts 115°
2026-05-07 17:30 50.24005 -140.96978 41087 ft 471 kts 115°
2026-05-07 17:30 50.21683 -140.87406 41092 ft 472 kts 115°
2026-05-07 17:31 50.19352 -140.77839 41093 ft 472 kts 115°
2026-05-07 17:31 50.17011 -140.68275 41103 ft 471 kts 116°
2026-05-07 17:32 50.14682 -140.58800 41104 ft 471 kts 116°
2026-05-07 17:32 50.12712 -140.50818 41102 ft 471 kts 116°
2026-05-07 17:33 50.09971 -140.39756 41102 ft 471 kts 116°
2026-05-07 17:33 50.07607 -140.30264 41104 ft 470 kts 116°
2026-05-07 17:34 50.05236 -140.20782 41109 ft 470 kts 116°
2026-05-07 17:34 50.02872 -140.11367 41113 ft 470 kts 116°
2026-05-07 17:35 50.00443 -140.01945 41116 ft 468 kts 120°
2026-05-07 17:35 49.97241 -139.93259 41114 ft 462 kts 127°
2026-05-07 17:36 49.93775 -139.84850 41119 ft 462 kts 128°
2026-05-07 17:36 49.90294 -139.76562 41120 ft 461 kts 128°
2026-05-07 17:37 49.86797 -139.68228 41123 ft 461 kts 128°
2026-05-07 17:37 49.83300 -139.59889 41122 ft 461 kts 128°
2026-05-07 17:38 49.79802 -139.51562 41124 ft 461 kts 128°
2026-05-07 17:38 49.76325 -139.43310 41127 ft 461 kts 128°
2026-05-07 17:39 49.72823 -139.35026 41132 ft 460 kts 128°
2026-05-07 17:39 49.69316 -139.26757 41134 ft 460 kts 128°